HOT - SCOPE : Cruise & Drifter Tracks
in the School of Ocean and Earth Science and Technology at the University of Hawai'i at Manoa

Kilo Moana
GMT GMT Latitude Longitude SOG Head TWind TWind Temp Rel Bar SST
date time deg N deg W dir speed deg C Humid deg C
6-18-2021 3:02 21o 18.91' ( 21.3151) 157o 52.65' (-157.8775) 0.0 208.5 55.8 9.9 27.6 154.6 1015.8 26.8
6-18-2021 2:32 21o 18.91' ( 21.3151) 157o 52.65' (-157.8775) 0.0 208.3 52.4 11.8 28.0 154.8 1015.9 26.8
6-18-2021 2:02 21o 18.91' ( 21.3151) 157o 52.65' (-157.8775) 0.0 208.3 37.2 12.7 29.2 155.4 1016.0 26.8
6-18-2021 1:32 21o 18.91' ( 21.3151) 157o 52.65' (-157.8775) 0.0 208.3 53.7 9.0 29.5 155.4 1016.1 26.8
6-18-2021 1:02 21o 18.91' ( 21.3151) 157o 52.65' (-157.8775) 0.0 208.7 48.1 10.5 29.3 155.6 1016.2 26.8
6-18-2021 0:32 21o 18.91' ( 21.3151) 157o 52.65' (-157.8774) 0.0 207.9 58.8 7.7 29.1 155.3 1016.4 26.9
6-18-2021 0:02 21o 18.91' ( 21.3151) 157o 52.65' (-157.8775) 0.0 208.9 77.9 12.4 27.7 155.1 1016.8 26.9
6-17-2021 23:32 21o 18.91' ( 21.3151) 157o 52.65' (-157.8775) 0.0 208.7 93.1 14.6 28.4 154.8 1017.0 27.0
6-17-2021 23:02 21o 18.91' ( 21.3152) 157o 52.67' (-157.8778) 0.4 228.0 91.7 12.7 27.9 154.3 1017.2 27.0
6-17-2021 22:32 21o 17.47' ( 21.2912) 157o 52.42' (-157.8737) 6.8 26.2 59.2 18.4 26.0 152.9 1017.0 26.5
6-17-2021 22:02 21o 14.71' ( 21.2451) 157o 53.84' (-157.8973) 0.7 38.2 85.8 21.0 25.6 151.5 1017.3 26.4
6-17-2021 21:32 21o 14.66' ( 21.2444) 157o 53.87' (-157.8978) 0.2 87.8 90.0 21.6 25.4 151.0 1017.5 26.3
6-17-2021 21:02 21o 14.72' ( 21.2453) 157o 53.85' (-157.8975) 0.2 101.7 85.8 17.5 25.5 151.6 1017.6 26.3
6-17-2021 20:32 21o 14.75' ( 21.2458) 157o 53.85' (-157.8975) 0.2 104.4 87.9 19.2 25.9 151.6 1017.7 26.3
6-17-2021 20:02 21o 13.32' ( 21.2220) 157o 53.22' (-157.8870) 4.4 339.4 86.9 21.8 26.0 151.0 1017.8 26.3
6-17-2021 19:32 21o 11.41' ( 21.1902) 157o 52.24' (-157.8707) 4.1 344.0 79.0 17.4 25.8 151.7 1017.9 26.2
6-17-2021 19:02 21o 9.67' ( 21.1611) 157o 51.06' (-157.8511) 4.4 336.3 68.4 18.6 25.7 151.8 1017.9 25.9
6-17-2021 18:32 21o 7.82' ( 21.1303) 157o 49.79' (-157.8299) 4.0 346.2 71.7 18.1 25.4 151.0 1017.9 25.9
6-17-2021 18:02 21o 5.97' ( 21.0995) 157o 48.68' (-157.8113) 4.0 346.0 70.0 22.8 25.4 151.8 1017.6 25.9
6-17-2021 17:32 21o 4.24' ( 21.0707) 157o 47.69' (-157.7949) 4.0 348.6 66.2 23.7 25.5 151.0 1017.3 25.9
6-17-2021 17:02 21o 2.62' ( 21.0437) 157o 46.72' (-157.7787) 3.8 336.7 68.5 19.2 25.3 151.4 1017.1 25.7
6-17-2021 16:32 21o 0.03' ( 21.0005) 157o 45.82' (-157.7636) 6.1 350.0 59.2 18.1 25.4 152.0 1017.0 25.7
6-17-2021 16:02 21o 1.95' ( 21.0324) 157o 46.82' (-157.7803) 5.9 342.3 68.5 16.2 25.1 151.7 1016.8 25.8
6-17-2021 15:32 20o 59.21' ( 20.9869) 157o 46.06' (-157.7677) 5.3 346.2 57.8 12.9 25.2 151.0 1016.5 25.6
6-17-2021 15:02 21o 0.35' ( 21.0059) 157o 48.40' (-157.8067) 7.9 119.7 98.0 11.4 25.1 151.6 1016.4 25.8
6-17-2021 14:32 21o 2.44' ( 21.0407) 157o 52.12' (-157.8687) 8.0 117.7 66.4 9.4 24.9 151.8 1016.2 26.0
6-17-2021 14:02 21o 4.53' ( 21.0755) 157o 55.84' (-157.9306) 8.3 115.7 78.5 7.0 24.9 151.8 1016.2 26.0
6-17-2021 13:32 21o 6.57' ( 21.1094) 157o 59.59' (-157.9932) 8.1 117.7 67.6 11.1 24.8 151.4 1016.2 26.0
6-17-2021 13:02 21o 8.63' ( 21.1438) 158o 3.32' (-158.0554) 8.2 122.4 74.2 17.1 24.9 151.6 1016.4 26.1
6-17-2021 12:32 21o 10.72' ( 21.1787) 158o 7.04' (-158.1174) 8.1 119.9 75.6 15.3 25.1 151.9 1016.4 26.2
6-17-2021 12:02 21o 12.82' ( 21.2136) 158o 10.83' (-158.1805) 8.2 120.1 75.7 12.7 25.0 151.6 1016.5 26.1
6-17-2021 11:32 21o 14.75' ( 21.2458) 158o 14.82' (-158.2471) 8.6 118.1 76.8 7.6 24.9 153.0 1016.7 26.0
6-17-2021 11:02 21o 17.77' ( 21.2962) 158o 17.55' (-158.2925) 8.5 181.0 85.4 10.3 25.4 154.9 1017.0 26.1
6-17-2021 10:32 21o 21.98' ( 21.3664) 158o 17.54' (-158.2924) 8.2 180.7 64.6 4.4 25.0 155.1 1017.1 26.2
6-17-2021 10:02 21o 25.78' ( 21.4297) 158o 18.80' (-158.3133) 7.7 160.6 94.7 4.6 24.9 155.1 1017.2 26.3
6-17-2021 9:32 21o 29.50' ( 21.4916) 158o 19.99' (-158.3332) 7.7 157.6 7.9 4.4 25.1 151.6 1017.5 26.2
6-17-2021 9:02 21o 33.36' ( 21.5560) 158o 21.12' (-158.3520) 8.0 163.1 52.6 13.6 25.0 151.8 1017.5 25.8
6-17-2021 8:32 21o 37.36' ( 21.6227) 158o 20.56' (-158.3427) 7.8 196.8 61.8 17.7 25.1 151.9 1017.8 26.0
6-17-2021 8:02 21o 41.32' ( 21.6887) 158o 19.31' (-158.3219) 8.5 195.6 77.6 19.8 25.3 151.9 1017.7 26.0
6-17-2021 7:32 21o 45.49' ( 21.7582) 158o 17.84' (-158.2974) 8.0 201.8 83.5 19.6 25.3 151.7 1017.5 26.0
6-17-2021 7:02 21o 49.65' ( 21.8275) 158o 16.29' (-158.2715) 8.5 198.4 83.8 18.6 25.3 151.4 1017.5 25.9
6-17-2021 6:32 21o 53.86' ( 21.8977) 158o 14.80' (-158.2467) 9.3 195.3 85.0 18.8 25.2 151.5 1017.4 25.5
6-17-2021 6:02 21o 58.20' ( 21.9700) 158o 13.40' (-158.2233) 8.7 186.5 102.1 16.3 25.1 151.7 1017.4 25.7
6-17-2021 5:32 22o 2.44' ( 22.0407) 158o 12.18' (-158.2031) 8.7 191.8 92.6 17.4 25.2 151.9 1017.2 25.8
6-17-2021 5:02 22o 6.66' ( 22.1111) 158o 10.97' (-158.1829) 8.6 193.9 89.9 18.5 25.1 151.7 1017.0 25.8
6-17-2021 4:32 22o 10.76' ( 22.1794) 158o 9.79' (-158.1631) 8.6 193.6 85.5 18.1 25.2 151.8 1017.0 25.6
6-17-2021 4:02 22o 14.83' ( 22.2472) 158o 8.62' (-158.1437) 8.3 193.2 76.0 16.9 25.5 151.0 1017.0 25.7
6-17-2021 3:02 22o 23.12' ( 22.3853) 158o 6.27' (-158.1044) 8.0 191.5 72.9 17.2 25.9 150.7 1016.9 25.7
6-17-2021 2:02 22o 31.29' ( 22.5216) 158o 2.65' (-158.0442) 8.9 201.8 84.4 14.7 25.6 150.9 1017.3 25.5
6-17-2021 1:02 22o 39.03' ( 22.6505) 157o 58.53' (-157.9755) 6.0 348.9 70.0 10.3 24.1 152.2 1017.7 25.6
6-17-2021 0:02 22o 39.14' ( 22.6523) 157o 58.54' (-157.9756) 6.2 293.0 59.6 13.2 24.0 152.8 1018.0 25.6
6-16-2021 23:02 22o 45.02' ( 22.7503) 157o 60.00' (-158.0000) 1.2 93.5 76.7 15.6 23.7 152.8 1018.6 25.7
6-16-2021 22:02 22o 45.01' ( 22.7502) 158o 0.02' (-158.0004) 0.0 65.3 68.5 15.5 24.0 152.2 1019.1 25.7
6-16-2021 21:02 22o 45.00' ( 22.7499) 158o 0.01' (-158.0002) 0.3 66.6 113.1 9.7 23.0 151.0 1019.6 25.6
6-16-2021 20:02 22o 45.00' ( 22.7499) 158o 0.01' (-158.0002) 0.3 57.3 66.2 9.7 22.5 152.1 1019.8 25.6
6-16-2021 19:02 22o 45.00' ( 22.7501) 157o 60.00' (-158.0000) 0.0 68.0 67.6 14.8 22.5 152.9 1019.9 25.6
6-16-2021 18:02 22o 45.00' ( 22.7501) 157o 60.00' (-158.0000) 0.3 75.8 106.9 17.5 22.5 152.6 1019.6 25.6
6-16-2021 17:02 22o 45.00' ( 22.7500) 157o 59.99' (-157.9999) 0.3 51.1 50.4 14.9 22.6 152.2 1019.2 25.6
6-16-2021 16:02 22o 44.99' ( 22.7498) 158o 0.01' (-158.0002) 0.3 50.9 53.2 18.1 22.9 152.4 1018.6 25.6
6-16-2021 15:02 22o 44.98' ( 22.7497) 158o 0.00' (-158.0001) 0.3 52.2 55.7 15.0 22.9 152.5 1018.3 25.6
6-16-2021 14:02 22o 44.96' ( 22.7493) 157o 59.97' (-157.9995) 0.3 51.0 52.5 14.8 22.8 152.6 1018.1 25.6
6-16-2021 13:02 22o 44.98' ( 22.7496) 157o 59.98' (-157.9997) 0.3 59.8 64.3 16.2 23.2 152.3 1017.8 25.6
6-16-2021 12:02 22o 44.98' ( 22.7497) 157o 59.98' (-157.9997) 0.3 67.3 76.6 20.2 23.5 152.0 1018.0 25.6
6-16-2021 11:02 22o 44.98' ( 22.7496) 157o 59.98' (-157.9996) 0.3 72.0 67.4 18.7 23.0 151.0 1018.4 25.6
6-16-2021 10:02 22o 45.03' ( 22.7505) 158o 0.03' (-158.0005) 0.3 81.0 87.1 13.8 24.4 152.2 1019.0 25.6
6-16-2021 9:02 22o 45.00' ( 22.7501) 158o 0.02' (-158.0004) 0.0 85.4 94.2 13.6 24.5 151.8 1019.4 25.6
6-16-2021 8:02 22o 46.11' ( 22.7684) 158o 0.17' (-158.0028) 8.0 185.2 90.5 17.9 24.8 151.6 1019.4 25.7
6-16-2021 7:02 22o 54.45' ( 22.9075) 157o 59.96' (-157.9993) 8.3 177.4 88.3 15.9 25.0 151.8 1019.3 25.8
6-16-2021 6:02 23o 2.81' ( 23.0468) 157o 59.99' (-157.9998) 8.1 176.8 109.1 15.2 24.8 151.8 1019.0 25.8
6-16-2021 1:02 23o 45.56' ( 23.7593) 157o 60.00' (-157.9999) 8.4 182.3 75.5 16.6 25.1 153.2 1019.0 26.0
6-16-2021 2:02 23o 37.03' ( 23.6172) 158o 0.00' (-158.0000) 8.0 180.7 82.2 18.5 25.1 152.7 1018.4 26.0
6-16-2021 3:02 23o 28.31' ( 23.4718) 157o 60.00' (-157.9999) 8.8 179.2 75.2 17.5 25.2 153.2 1018.4 25.7
6-16-2021 4:02 23o 19.58' ( 23.3263) 158o 0.00' (-158.0000) 8.7 181.6 79.0 15.7 25.3 152.3 1018.5 25.7
6-16-2021 5:02 23o 11.10' ( 23.1851) 158o 0.05' (-158.0008) 8.3 178.6 102.1 14.0 25.1 151.0 1018.7 25.8
6-16-2021 0:02 23o 54.15' ( 23.9025) 157o 59.99' (-157.9998) 8.7 182.8 77.8 17.3 25.2 152.2 1019.3 25.9
6-15-2021 23:02 23o 59.97' ( 23.9996) 158o 0.02' (-158.0003) 0.4 70.9 72.5 17.3 24.5 152.4 1019.8 25.7
6-15-2021 22:02 24o 0.04' ( 24.0007) 158o 0.04' (-158.0006) 0.4 86.2 88.4 16.0 24.8 151.9 1020.1 25.7
6-15-2021 21:02 23o 59.99' ( 23.9999) 158o 0.02' (-158.0003) 0.3 74.4 77.5 16.7 24.7 152.0 1020.5 25.6
6-15-2021 20:02 24o 0.04' ( 24.0007) 158o 0.02' (-158.0004) 0.3 89.8 90.1 19.2 24.8 152.0 1020.2 25.6
6-15-2021 19:02 24o 0.01' ( 24.0002) 158o 0.01' (-158.0002) 0.0 66.0 73.6 17.0 24.9 152.0 1020.3 25.6
6-15-2021 18:02 24o 0.02' ( 24.0003) 158o 0.01' (-158.0001) 0.4 62.4 74.8 18.1 24.8 151.9 1020.0 25.5
6-15-2021 17:02 24o 0.01' ( 24.0002) 158o 0.00' (-158.0001) 0.4 64.2 67.3 19.1 24.2 152.0 1019.7 25.4
6-15-2021 16:02 24o 0.01' ( 24.0001) 157o 59.98' (-157.9997) 0.0 57.0 69.0 19.2 24.1 152.2 1019.3 25.4
6-15-2021 15:02 24o 0.02' ( 24.0003) 157o 59.99' (-157.9998) 0.4 59.5 63.5 20.2 24.1 151.3 1018.9 25.4
6-15-2021 14:02 23o 59.99' ( 23.9998) 157o 59.96' (-157.9993) 0.4 54.0 62.5 18.2 24.0 150.6 1018.9 25.4
6-15-2021 13:02 23o 60.00' ( 24.0000) 157o 59.97' (-157.9995) 0.4 55.8 57.4 17.6 23.0 150.7 1019.0 25.5
6-15-2021 12:02 24o 0.01' ( 24.0002) 158o 0.02' (-158.0004) 0.4 51.7 71.8 18.9 23.9 150.7 1019.2 25.5
6-15-2021 11:02 23o 59.99' ( 23.9999) 158o 0.00' (-158.0000) 0.4 55.3 77.9 14.6 23.6 152.4 1019.8 25.4
6-15-2021 10:02 24o 0.02' ( 24.0003) 158o 0.05' (-158.0009) 2.1 87.7 90.0 17.5 23.6 152.4 1020.6 25.6
6-15-2021 9:02 24o 7.33' ( 24.1222) 158o 0.07' (-158.0011) 7.8 176.1 87.7 16.3 23.0 152.0 1021.0 25.4
6-15-2021 8:02 24o 15.12' ( 24.2521) 158o 0.00' (-158.0000) 7.5 176.4 95.4 17.4 24.3 150.6 1021.0 25.5
6-15-2021 7:02 24o 22.65' ( 24.3774) 158o 0.02' (-158.0004) 7.6 174.7 92.5 19.4 23.7 152.4 1020.6 25.5
6-15-2021 6:02 24o 30.29' ( 24.5049) 157o 59.96' (-157.9994) 8.1 176.6 88.1 18.2 23.7 152.0 1020.5 25.5
6-15-2021 5:02 24o 38.56' ( 24.6427) 157o 59.99' (-157.9999) 8.0 175.3 93.5 18.4 22.6 152.8 1020.3 25.7
6-15-2021 4:02 24o 46.57' ( 24.7762) 158o 0.03' (-158.0006) 8.1 177.1 87.9 18.4 24.4 150.7 1019.6 25.7
6-15-2021 3:02 24o 54.64' ( 24.9107) 157o 59.99' (-157.9999) 7.9 177.2 97.1 17.4 24.1 151.2 1019.7 25.7
6-15-2021 2:02 25o 2.63' ( 25.0438) 158o 0.02' (-158.0003) 8.2 179.5 92.9 19.9 24.4 151.3 1019.5 25.6
6-15-2021 1:02 25o 10.74' ( 25.1791) 158o 0.00' (-158.0001) 8.0 183.7 98.6 19.7 24.2 151.0 1019.9 25.4
6-15-2021 0:02 25o 18.84' ( 25.3141) 157o 59.98' (-157.9997) 7.6 179.4 120.7 17.0 23.3 152.3 1020.5 25.6
6-14-2021 23:02 25o 27.08' ( 25.4514) 157o 59.95' (-157.9991) 8.2 184.6 104.1 10.7 22.4 152.6 1021.3 25.7
6-14-2021 22:02 25o 35.11' ( 25.5852) 157o 59.94' (-157.9991) 7.9 179.1 87.5 6.2 22.2 152.3 1021.9 25.3
6-14-2021 21:02 25o 43.09' ( 25.7181) 157o 59.99' (-157.9998) 8.0 176.9 85.1 4.0 21.7 152.7 1022.4 25.3
6-14-2021 20:02 25o 51.06' ( 25.8509) 158o 0.03' (-158.0005) 8.1 178.7 113.2 7.0 22.0 151.7 1022.3 25.3
6-14-2021 19:02 25o 59.35' ( 25.9891) 157o 59.90' (-157.9983) 8.5 179.0 65.6 19.9 22.4 152.2 1022.2 25.0
6-14-2021 18:02 26o 0.00' ( 26.0000) 158o 0.01' (-158.0002) 0.5 51.1 59.4 18.3 23.7 152.3 1021.8 24.9
6-14-2021 17:02 26o 0.00' ( 26.0001) 158o 0.02' (-158.0004) 0.0 49.9 43.1 16.6 23.9 153.7 1021.5 25.0
6-14-2021 16:02 26o 4.22' ( 26.0703) 158o 0.01' (-158.0001) 7.5 179.5 42.4 18.1 24.1 155.0 1021.3 24.5
6-14-2021 15:02 26o 11.93' ( 26.1988) 157o 59.98' (-157.9996) 7.8 179.3 50.4 18.7 24.0 156.1 1021.2 24.6
6-14-2021 14:02 26o 19.69' ( 26.3282) 158o 0.07' (-158.0011) 8.1 178.0 61.5 17.0 24.0 155.0 1020.9 24.7
6-14-2021 13:02 26o 27.64' ( 26.4607) 157o 59.67' (-157.9945) 8.0 190.2 61.9 15.5 24.1 154.8 1021.1 24.7
6-14-2021 12:02 26o 36.06' ( 26.6010) 157o 59.80' (-157.9966) 8.8 175.8 69.3 16.6 23.7 154.9 1021.2 24.9
6-14-2021 11:02 26o 44.62' ( 26.7437) 157o 59.96' (-157.9993) 8.4 179.6 66.4 18.6 23.5 154.8 1021.7 24.9
6-14-2021 10:02 26o 52.90' ( 26.8817) 158o 0.01' (-158.0002) 8.3 182.2 72.4 20.0 23.6 154.9 1022.1 25.0
6-14-2021 9:02 27o 1.19' ( 27.0199) 158o 0.01' (-158.0001) 8.1 180.6 70.2 19.2 23.7 155.1 1022.4 24.9
6-14-2021 8:02 27o 9.18' ( 27.1530) 157o 59.94' (-157.9990) 7.9 180.5 66.7 18.0 23.6 154.9 1022.4 24.9
6-14-2021 7:02 27o 17.17' ( 27.2861) 157o 59.96' (-157.9993) 7.9 179.3 73.2 17.5 23.4 155.9 1022.2 24.8
6-14-2021 6:02 27o 25.10' ( 27.4183) 158o 0.02' (-158.0003) 7.6 178.3 67.5 18.3 23.5 155.8 1021.8 24.8
6-14-2021 5:02 27o 32.87' ( 27.5478) 158o 0.01' (-158.0002) 7.9 177.2 73.0 19.5 23.6 154.1 1021.5 24.7
6-14-2021 4:02 27o 40.90' ( 27.6817) 157o 59.98' (-157.9997) 8.0 181.9 69.4 17.5 24.0 153.4 1021.2 24.8
6-14-2021 3:02 27o 48.98' ( 27.8164) 157o 60.00' (-158.0000) 8.3 180.1 60.8 16.4 24.1 154.1 1021.7 24.7
6-14-2021 2:02 27o 57.00' ( 27.9500) 158o 0.02' (-158.0003) 7.8 178.8 67.0 16.3 24.3 154.3 1022.0 24.7
6-14-2021 1:02 27o 59.98' ( 27.9996) 158o 0.01' (-158.0002) 0.0 81.8 70.7 12.5 23.5 154.4 1022.5 24.6
6-14-2021 0:02 28o 1.51' ( 28.0252) 157o 59.00' (-157.9833) 11.0 208.4 70.5 14.2 24.7 153.8 1022.7 24.6
6-13-2021 23:02 28o 11.01' ( 28.1834) 157o 52.81' (-157.8801) 10.0 208.0 69.5 12.8 24.1 155.3 1022.9 24.7
6-13-2021 22:02 28o 20.52' ( 28.3420) 157o 46.52' (-157.7754) 11.2 208.1 64.8 14.9 24.7 155.5 1023.4 24.6
6-13-2021 21:02 28o 30.25' ( 28.5042) 157o 40.07' (-157.6679) 11.6 210.4 73.4 16.3 24.6 155.6 1023.6 24.2
6-13-2021 20:02 28o 40.20' ( 28.6700) 157o 33.42' (-157.5571) 11.4 211.4 57.9 18.3 24.3 154.1 1023.8 24.2
6-13-2021 19:02 28o 50.02' ( 28.8336) 157o 27.01' (-157.4501) 11.2 212.3 60.3 16.4 23.9 155.8 1023.8 24.0
6-13-2021 18:02 28o 59.76' ( 28.9959) 157o 20.60' (-157.3433) 11.2 209.3 47.4 16.6 23.7 155.8 1023.7 24.0
6-13-2021 17:02 29o 9.37' ( 29.1562) 157o 14.16' (-157.2360) 11.1 208.6 48.0 13.2 23.3 156.5 1023.2 24.3
6-13-2021 16:02 29o 19.05' ( 29.3176) 157o 7.81' (-157.1301) 11.3 209.2 63.0 12.1 22.0 156.1 1022.0 24.2
6-13-2021 15:02 29o 28.76' ( 29.4793) 157o 1.26' (-157.0209) 11.1 210.6 54.1 9.5 21.7 155.0 1022.3 24.1
6-13-2021 14:02 29o 38.40' ( 29.6399) 156o 54.85' (-156.9142) 11.2 211.0 62.3 16.9 21.8 156.1 1022.0 24.1
6-13-2021 13:02 29o 48.07' ( 29.8012) 156o 48.44' (-156.8073) 11.0 212.9 46.4 15.4 21.8 155.9 1021.9 23.6
6-13-2021 12:02 29o 57.81' ( 29.9634) 156o 41.82' (-156.6970) 11.4 211.4 51.3 15.9 21.4 156.0 1022.2 23.0
6-13-2021 11:02 30o 7.75' ( 30.1292) 156o 35.23' (-156.5872) 11.4 210.1 58.7 10.8 21.1 156.2 1022.8 23.1
6-13-2021 10:02 30o 17.75' ( 30.2958) 156o 28.47' (-156.4745) 11.4 211.5 42.1 13.2 21.7 156.2 1023.3 22.9
6-13-2021 9:02 30o 27.60' ( 30.4599) 156o 21.89' (-156.3649) 11.6 209.9 32.4 12.9 21.3 156.3 1023.9 23.0
6-13-2021 8:02 30o 37.62' ( 30.6270) 156o 15.11' (-156.2518) 11.5 210.2 40.2 10.3 21.0 156.2 1024.0 22.9
6-13-2021 7:02 30o 47.61' ( 30.7935) 156o 8.34' (-156.1390) 11.6 208.2 46.4 12.8 21.4 156.4 1023.8 22.8
6-13-2021 6:02 30o 57.38' ( 30.9563) 156o 1.87' (-156.0312) 10.2 205.0 30.4 11.8 21.2 156.1 1023.3 22.8
6-13-2021 5:02 31o 0.00' ( 31.0000) 156o 0.02' (-156.0003) 0.3 32.8 38.0 13.7 20.3 156.6 1023.0 22.8
6-13-2021 4:02 31o 0.01' ( 31.0001) 156o 0.02' (-156.0004) 0.0 38.7 28.3 12.0 20.4 156.5 1022.4 22.9
6-13-2021 3:02 31o 0.00' ( 31.0001) 156o 0.01' (-156.0002) 0.3 43.4 27.3 15.1 20.5 156.0 1022.2 22.7
6-13-2021 2:02 31o 0.02' ( 31.0004) 156o 0.04' (-156.0007) 0.3 34.8 27.8 13.3 20.6 156.3 1022.6 22.7
6-13-2021 1:02 31o 0.00' ( 31.0000) 156o 0.00' (-156.0000) 0.3 30.7 35.1 13.6 20.9 154.0 1022.8 22.8
6-13-2021 0:02 30o 59.99' ( 30.9999) 156o 0.03' (-156.0005) 0.3 32.9 35.5 10.8 21.1 154.3 1023.2 22.8
6-12-2021 23:02 31o 0.01' ( 31.0002) 156o 0.08' (-156.0013) 0.4 22.8 20.3 14.9 21.0 154.6 1023.3 22.7
6-12-2021 22:02 31o 0.20' ( 31.0034) 156o 0.14' (-156.0023) 0.3 23.0 24.5 12.2 21.2 156.0 1023.6 22.7
6-12-2021 21:02 31o 0.21' ( 31.0034) 156o 0.14' (-156.0023) 0.3 15.9 14.2 12.6 21.1 155.9 1023.9 22.6
6-12-2021 20:02 31o 0.21' ( 31.0035) 156o 0.17' (-156.0029) 0.4 12.8 7.7 13.8 20.8 155.0 1023.8 22.6
6-12-2021 19:02 31o 0.22' ( 31.0037) 156o 0.19' (-156.0032) 0.3 14.1 12.2 16.7 20.0 156.0 1023.4 22.6
6-12-2021 18:02 31o 0.23' ( 31.0038) 156o 0.21' (-156.0035) 0.4 19.5 3.5 15.4 21.1 155.2 1023.2 22.6
6-12-2021 17:02 31o 0.48' ( 31.0079) 156o 0.52' (-156.0086) 0.5 23.8 0.8 17.0 20.5 153.3 1022.8 22.6
6-12-2021 16:02 31o 1.88' ( 31.0312) 156o 0.16' (-156.0026) 0.2 10.6 8.6 17.3 20.2 152.1 1022.3 22.7
6-12-2021 15:02 31o 1.87' ( 31.0311) 156o 0.14' (-156.0023) 0.3 13.2 13.7 13.2 20.0 154.0 1021.9 22.7
6-12-2021 14:02 31o 1.87' ( 31.0312) 156o 0.06' (-156.0010) 0.3 347.9 336.4 9.6 20.3 152.6 1021.9 22.7
6-12-2021 13:02 31o 1.12' ( 31.0187) 156o 0.07' (-156.0011) 1.0 0.4 313.5 12.1 20.8 153.1 1021.9 22.7
6-12-2021 12:02 30o 59.98' ( 30.9996) 156o 0.00' (-156.0000) 0.0 358.1 331.1 8.3 21.5 153.0 1022.4 22.7
6-12-2021 11:02 30o 59.97' ( 30.9996) 155o 59.99' (-155.9998) 0.2 1.2 304.5 9.6 22.1 154.0 1022.8 22.7
6-12-2021 10:02 30o 59.98' ( 30.9997) 156o 0.03' (-156.0005) 0.2 7.4 351.5 10.8 22.0 154.0 1023.3 22.7
6-12-2021 9:02 30o 58.64' ( 30.9774) 156o 1.30' (-156.0216) 8.2 42.7 354.5 9.6 22.1 155.3 1023.7 22.8
6-12-2021 8:02 30o 52.37' ( 30.8728) 156o 7.65' (-156.1276) 8.5 39.9 337.3 7.7 21.9 155.0 1024.0 23.0
6-12-2021 7:02 30o 46.06' ( 30.7677) 156o 13.98' (-156.2329) 8.0 40.6 350.8 12.3 21.8 154.0 1023.8 22.9
6-12-2021 6:02 30o 39.81' ( 30.6635) 156o 20.20' (-156.3367) 8.2 42.0 342.8 9.8 21.8 155.0 1023.7 23.1
6-12-2021 5:02 30o 33.69' ( 30.5614) 156o 26.40' (-156.4400) 8.0 39.4 346.8 12.3 21.8 155.9 1023.5 23.3
6-12-2021 4:02 30o 27.62' ( 30.4603) 156o 32.43' (-156.5404) 7.0 40.2 350.7 12.6 22.0 156.2 1023.3 23.4
6-12-2021 3:02 30o 21.56' ( 30.3593) 156o 38.48' (-156.6413) 8.1 40.0 358.3 9.6 22.0 156.0 1023.6 23.0
6-12-2021 2:02 30o 15.40' ( 30.2567) 156o 44.62' (-156.7437) 8.3 39.7 6.1 9.5 22.2 155.9 1024.1 23.1
6-12-2021 1:02 30o 9.14' ( 30.1523) 156o 50.91' (-156.8485) 8.3 39.5 9.0 8.0 22.2 155.6 1024.3 23.2
6-12-2021 0:02 30o 2.92' ( 30.0487) 156o 57.05' (-156.9509) 8.3 39.1 15.3 7.5 22.2 156.0 1024.9 23.0
6-11-2021 23:02 29o 59.99' ( 29.9998) 156o 59.99' (-156.9998) 0.0 16.0 18.5 8.7 22.6 156.1 1025.4 23.0
6-11-2021 22:02 29o 60.00' ( 29.9999) 157o 0.01' (-157.0001) 0.2 17.9 23.0 8.5 22.5 155.8 1025.9 23.0
6-11-2021 21:02 29o 60.00' ( 30.0000) 157o 0.03' (-157.0005) 0.3 7.6 17.3 8.9 22.8 155.0 1026.3 23.0
6-11-2021 20:02 30o 0.00' ( 30.0000) 157o 0.01' (-157.0002) 0.2 346.5 31.1 9.2 23.1 156.1 1026.5 22.9
6-11-2021 19:02 30o 2.11' ( 30.0351) 157o 0.25' (-157.0042) 8.7 183.8 35.9 8.9 23.0 156.3 1026.6 22.8
6-11-2021 18:02 30o 4.58' ( 30.0763) 157o 0.89' (-157.0149) 1.3 16.6 17.1 6.9 22.5 156.0 1026.5 22.8
6-11-2021 17:02 30o 3.22' ( 30.0537) 157o 0.34' (-157.0057) 1.7 324.2 7.5 8.1 22.7 156.3 1026.5 22.8
6-11-2021 16:02 30o 1.94' ( 30.0324) 156o 58.93' (-156.9821) 2.1 324.5 17.1 10.3 21.8 156.1 1026.5 22.9
6-11-2021 15:02 30o 0.46' ( 30.0077) 156o 59.02' (-156.9837) 1.7 38.0 29.7 8.2 21.5 156.1 1026.4 23.1
6-11-2021 14:02 29o 60.00' ( 29.9999) 156o 59.91' (-156.9985) 1.0 80.8 32.0 8.7 21.6 156.4 1026.3 22.9
6-11-2021 13:02 29o 59.97' ( 29.9995) 156o 59.96' (-156.9994) 0.2 86.0 48.9 8.6 21.5 155.8 1026.5 23.1
6-11-2021 12:02 29o 59.99' ( 29.9998) 156o 59.97' (-156.9994) 0.2 101.9 50.0 10.0 21.8 155.9 1027.0 23.2
6-11-2021 11:02 29o 59.03' ( 29.9838) 157o 0.81' (-157.0135) 8.0 33.3 39.3 10.5 21.6 155.5 1027.5 23.5
6-11-2021 10:02 29o 51.99' ( 29.8665) 157o 6.52' (-157.1087) 8.0 37.5 41.4 8.5 21.7 155.8 1028.0 23.7
6-11-2021 9:02 29o 45.24' ( 29.7541) 157o 12.32' (-157.2053) 8.3 37.9 41.5 10.6 21.9 154.9 1028.2 23.8
6-11-2021 8:02 29o 38.51' ( 29.6418) 157o 17.94' (-157.2990) 8.4 38.8 54.8 11.0 22.0 154.9 1028.3 24.0
6-11-2021 7:02 29o 31.94' ( 29.5323) 157o 23.72' (-157.3954) 8.4 41.9 55.4 10.6 22.4 154.0 1028.1 24.3
6-11-2021 6:02 29o 25.39' ( 29.4231) 157o 29.55' (-157.4924) 8.0 42.4 45.8 11.2 22.4 153.6 1027.7 24.3
6-11-2021 5:02 29o 18.71' ( 29.3118) 157o 35.02' (-157.5836) 8.2 38.4 46.4 10.7 22.6 152.4 1027.1 23.9
6-11-2021 4:02 29o 11.92' ( 29.1986) 157o 40.22' (-157.6704) 8.2 37.2 62.0 9.6 22.8 153.0 1026.7 24.1
6-11-2021 3:02 29o 5.07' ( 29.0845) 157o 45.27' (-157.7545) 7.9 36.0 55.0 11.9 22.8 152.1 1026.7 24.0
6-11-2021 2:02 28o 59.75' ( 28.9958) 157o 49.96' (-157.8326) 1.6 83.7 51.7 11.4 22.8 152.5 1026.8 24.5
6-11-2021 1:02 28o 59.81' ( 28.9968) 157o 51.82' (-157.8637) 1.6 83.0 55.3 12.9 22.9 152.7 1027.0 24.5
6-11-2021 0:02 28o 59.99' ( 28.9999) 157o 53.66' (-157.8944) 1.8 84.4 66.5 10.8 23.1 152.3 1027.5 24.4
6-10-2021 23:02 29o 0.11' ( 29.0019) 157o 55.66' (-157.9277) 1.7 85.9 66.4 8.7 23.4 152.6 1027.9 24.3
6-10-2021 22:02 29o 0.21' ( 29.0036) 157o 57.79' (-157.9632) 1.6 84.8 75.2 8.3 23.2 152.2 1028.1 24.2
6-10-2021 21:02 29o 0.03' ( 29.0005) 157o 59.89' (-157.9982) 2.1 70.7 65.8 10.1 23.3 152.0 1028.7 24.1
6-10-2021 20:02 29o 0.00' ( 29.0000) 158o 0.01' (-158.0002) 0.3 76.9 67.8 8.1 23.7 152.0 1028.6 24.1
6-10-2021 19:02 28o 59.91' ( 28.9986) 158o 0.10' (-158.0017) 2.9 55.4 75.2 10.4 23.9 152.4 1028.6 24.0
6-10-2021 18:02 28o 51.98' ( 28.8663) 157o 59.37' (-157.9895) 8.0 351.1 72.7 10.1 23.8 152.5 1028.2 24.0
6-10-2021 17:02 28o 43.68' ( 28.7281) 157o 58.72' (-157.9787) 8.6 353.2 102.9 9.4 23.9 152.0 1027.8 23.9
6-10-2021 16:02 28o 35.21' ( 28.5868) 157o 58.00' (-157.9666) 8.3 356.3 36.1 10.6 22.4 152.6 1027.6 24.0
6-10-2021 15:02 28o 26.83' ( 28.4472) 157o 57.38' (-157.9563) 8.4 356.7 62.6 11.7 23.3 152.6 1027.0 24.0
6-10-2021 14:02 28o 18.18' ( 28.3029) 157o 56.76' (-157.9460) 8.6 358.1 80.8 17.6 23.3 152.4 1026.8 24.3
6-10-2021 13:02 28o 9.24' ( 28.1540) 157o 56.12' (-157.9353) 9.2 357.1 71.4 12.8 23.0 151.0 1026.8 24.3
6-10-2021 12:02 28o 0.20' ( 28.0033) 157o 55.31' (-157.9218) 8.0 357.0 67.6 16.1 22.8 151.0 1026.9 24.2
6-10-2021 11:02 27o 51.14' ( 27.8524) 157o 54.63' (-157.9106) 9.0 358.4 89.0 14.4 22.2 151.7 1027.2 24.1
6-10-2021 10:02 27o 42.00' ( 27.7000) 157o 53.93' (-157.8989) 9.4 356.0 106.2 16.6 22.9 152.3 1027.4 24.1
6-10-2021 9:02 27o 32.91' ( 27.5486) 157o 53.22' (-157.8870) 8.9 359.1 88.4 13.3 22.8 152.9 1027.5 24.1
6-10-2021 8:02 27o 24.07' ( 27.4011) 157o 52.64' (-157.8774) 8.9 358.1 66.5 15.6 22.9 152.8 1027.2 24.2
6-10-2021 7:02 27o 15.10' ( 27.2516) 157o 51.81' (-157.8636) 9.0 356.4 73.3 18.2 23.8 152.5 1026.5 24.3
6-10-2021 6:02 27o 6.31' ( 27.1052) 157o 50.77' (-157.8462) 8.3 352.5 74.9 18.9 24.0 151.0 1025.8 24.5
6-10-2021 5:02 26o 59.50' ( 26.9917) 157o 50.85' (-157.8475) 1.4 95.9 83.4 16.3 23.8 152.0 1025.3 24.6
6-10-2021 4:02 26o 59.66' ( 26.9943) 157o 52.42' (-157.8737) 1.6 99.0 80.6 16.8 24.1 151.7 1024.8 24.6
6-10-2021 3:02 26o 59.94' ( 26.9990) 157o 54.09' (-157.9016) 1.4 101.0 75.0 17.0 24.1 152.2 1024.9 24.7
6-10-2021 2:02 27o 0.16' ( 27.0027) 157o 55.74' (-157.9291) 1.7 92.3 61.8 13.2 24.0 152.0 1025.0 24.8
6-10-2021 1:02 27o 0.12' ( 27.0020) 157o 57.56' (-157.9593) 1.7 92.6 82.2 14.7 24.0 151.9 1025.2 24.7
6-10-2021 0:02 26o 59.98' ( 26.9997) 157o 59.48' (-157.9914) 1.0 92.6 88.0 14.7 23.6 152.0 1025.5 24.7
6-9-2021 23:02 26o 59.97' ( 26.9996) 157o 59.99' (-157.9998) 0.3 90.2 80.2 17.9 23.9 151.0 1025.7 24.6
6-9-2021 22:02 26o 58.12' ( 26.9687) 157o 56.75' (-157.9458) 8.3 303.4 82.0 16.0 24.9 151.0 1025.8 24.7
6-9-2021 21:02 26o 55.74' ( 26.9290) 157o 53.57' (-157.8928) 1.8 110.3 80.1 10.3 23.6 152.4 1025.7 24.5
6-9-2021 20:02 26o 56.40' ( 26.9399) 157o 55.67' (-157.9278) 1.9 107.9 59.0 14.5 22.7 152.0 1025.6 24.6
6-9-2021 19:02 26o 57.09' ( 26.9515) 157o 57.62' (-157.9603) 1.7 113.1 70.4 16.2 23.6 152.4 1025.4 24.6
6-9-2021 18:02 26o 58.08' ( 26.9680) 157o 59.03' (-157.9839) 1.5 142.2 71.1 17.4 24.0 152.3 1025.1 24.6
6-9-2021 17:02 26o 59.15' ( 26.9859) 157o 59.59' (-157.9931) 1.3 158.9 70.0 15.7 23.2 152.4 1024.5 24.6
6-9-2021 16:02 26o 57.01' ( 26.9502) 158o 0.08' (-158.0014) 9.0 354.8 76.5 19.0 23.6 153.0 1024.0 24.6
6-9-2021 15:02 26o 48.32' ( 26.8053) 157o 59.53' (-157.9921) 8.6 358.0 77.9 18.9 23.5 153.6 1023.6 24.5
6-9-2021 14:02 26o 40.00' ( 26.6667) 157o 59.00' (-157.9833) 7.8 358.5 63.2 18.2 23.7 152.8 1023.0 24.4
6-9-2021 13:02 26o 32.27' ( 26.5378) 157o 58.45' (-157.9742) 7.6 356.5 71.2 18.7 23.5 152.2 1023.1 24.4
6-9-2021 12:02 26o 24.84' ( 26.4140) 157o 57.97' (-157.9661) 7.0 359.2 62.3 18.9 23.8 152.4 1023.1 24.3
6-9-2021 11:02 26o 17.07' ( 26.2845) 157o 57.48' (-157.9581) 7.7 0.8 57.3 13.8 23.2 154.0 1023.4 24.4
6-9-2021 10:02 26o 9.45' ( 26.1576) 157o 57.10' (-157.9517) 7.0 357.7 78.7 22.4 24.0 153.9 1023.7 24.4
6-9-2021 9:02 26o 1.16' ( 26.0193) 157o 56.36' (-157.9394) 8.5 355.7 76.7 11.9 23.1 155.9 1023.9 24.9
6-9-2021 8:02 25o 52.86' ( 25.8810) 157o 55.77' (-157.9295) 8.0 353.3 71.7 20.0 24.4 155.6 1023.7 25.2
6-9-2021 7:02 25o 44.61' ( 25.7435) 157o 54.76' (-157.9127) 8.6 349.9 77.8 18.4 24.6 154.5 1023.2 25.4
6-9-2021 6:02 25o 36.38' ( 25.6063) 157o 53.93' (-157.8988) 8.2 353.8 73.3 18.6 24.6 154.6 1022.7 25.3
6-9-2021 5:02 25o 27.97' ( 25.4661) 157o 53.83' (-157.8971) 8.0 356.9 73.3 17.1 24.6 154.8 1022.0 25.2
6-9-2021 4:02 25o 19.54' ( 25.3257) 157o 53.72' (-157.8954) 8.5 357.2 67.3 19.2 25.0 154.2 1021.4 25.2
6-9-2021 3:02 25o 11.09' ( 25.1849) 157o 53.36' (-157.8893) 8.0 356.7 81.1 18.4 25.0 154.6 1021.3 25.2
6-9-2021 2:02 25o 2.73' ( 25.0455) 157o 52.96' (-157.8826) 8.0 357.5 76.2 21.9 25.3 154.4 1021.3 25.3
6-9-2021 1:02 24o 58.10' ( 24.9684) 157o 53.25' (-157.8876) 1.4 110.2 91.0 17.9 25.0 154.7 1021.7 25.5
6-9-2021 0:02 24o 58.69' ( 24.9782) 157o 54.91' (-157.9152) 1.3 112.1 88.0 18.6 24.8 155.3 1022.2 25.4
6-8-2021 23:02 24o 59.22' ( 24.9870) 157o 56.51' (-157.9418) 1.6 112.2 87.8 18.6 24.8 154.9 1022.5 25.1
6-8-2021 22:02 24o 59.68' ( 24.9947) 157o 57.96' (-157.9659) 1.0 115.2 93.4 19.5 24.8 155.3 1022.7 25.1
6-8-2021 21:02 25o 0.03' ( 25.0005) 157o 59.45' (-157.9908) 1.5 107.4 88.7 18.4 24.7 155.7 1022.8 25.1
6-8-2021 20:02 25o 0.05' ( 25.0008) 158o 0.03' (-158.0004) 0.4 114.2 89.7 18.3 24.8 155.8 1022.8 25.1
6-8-2021 19:02 25o 0.01' ( 25.0001) 158o 0.03' (-158.0004) 0.0 98.7 87.3 18.9 24.9 155.4 1022.6 25.1
6-8-2021 18:02 25o 0.03' ( 25.0005) 158o 0.02' (-158.0003) 0.4 106.6 83.1 18.0 25.0 154.4 1022.1 25.1
6-8-2021 17:02 24o 57.62' ( 24.9603) 158o 0.00' (-158.0000) 7.0 359.9 78.4 20.3 25.0 153.6 1021.5 25.1
6-8-2021 16:02 24o 51.10' ( 24.8517) 157o 59.98' (-157.9996) 5.8 9.4 94.2 21.8 25.0 154.9 1020.6 25.0
6-8-2021 15:02 24o 45.20' ( 24.7534) 157o 60.00' (-157.9999) 5.7 6.0 102.2 21.2 24.5 152.0 1020.2 25.3
6-8-2021 14:02 24o 39.87' ( 24.6645) 157o 59.96' (-157.9993) 5.0 5.0 99.9 21.7 23.7 152.5 1020.1 25.3
6-8-2021 13:02 24o 34.71' ( 24.5784) 157o 59.99' (-157.9998) 5.2 8.5 123.3 20.9 23.7 152.5 1020.3 25.2
6-8-2021 12:02 24o 29.51' ( 24.4918) 157o 59.94' (-157.9990) 5.6 6.3 101.8 18.1 24.2 152.0 1020.3 25.1
6-8-2021 11:02 24o 24.01' ( 24.4002) 158o 0.07' (-158.0011) 5.9 3.7 99.9 20.1 24.5 152.0 1020.7 25.3
6-8-2021 10:02 24o 18.69' ( 24.3115) 158o 0.03' (-158.0006) 5.3 0.7 111.6 17.7 23.7 151.9 1021.3 25.4
6-8-2021 9:02 24o 12.19' ( 24.2032) 157o 59.88' (-157.9981) 6.6 356.9 115.5 11.8 23.4 152.2 1021.4 25.7
6-8-2021 8:02 24o 5.62' ( 24.0937) 158o 0.03' (-158.0005) 6.4 1.3 82.4 20.7 24.9 152.1 1020.9 25.8
6-8-2021 7:02 23o 58.37' ( 23.9728) 158o 0.08' (-158.0014) 7.0 0.5 76.8 19.3 24.7 151.6 1020.3 25.8
6-8-2021 6:02 23o 50.66' ( 23.8444) 157o 59.99' (-157.9998) 7.0 359.3 87.1 21.6 24.8 152.7 1019.7 25.5
6-8-2021 5:02 23o 42.51' ( 23.7085) 157o 59.95' (-157.9991) 8.1 355.6 85.4 22.1 25.0 152.6 1018.9 25.5
6-8-2021 4:02 23o 34.79' ( 23.5799) 157o 59.95' (-157.9991) 7.6 358.4 74.6 19.3 25.2 152.0 1018.5 25.4
6-8-2021 3:02 23o 27.46' ( 23.4576) 157o 59.99' (-157.9999) 7.2 358.7 77.4 19.9 25.2 151.4 1018.3 25.5
6-8-2021 2:02 23o 20.11' ( 23.3352) 157o 60.00' (-158.0000) 7.3 1.5 77.5 17.2 25.2 152.2 1018.4 25.4
6-8-2021 1:02 23o 12.92' ( 23.2153) 157o 59.98' (-157.9996) 7.2 359.8 91.7 19.2 25.1 151.9 1018.7 25.4
6-8-2021 0:02 23o 6.06' ( 23.1010) 157o 59.99' (-157.9999) 7.0 0.4 65.3 18.4 24.8 151.6 1019.2 25.4
6-7-2021 23:02 22o 59.09' ( 22.9849) 157o 59.98' (-157.9997) 7.1 4.3 66.2 17.0 25.0 151.8 1019.4 25.5
6-7-2021 22:02 22o 51.91' ( 22.8651) 157o 59.98' (-157.9996) 7.2 4.8 56.6 15.4 24.5 152.2 1019.5 25.5
6-7-2021 21:02 22o 44.87' ( 22.7478) 157o 59.95' (-157.9992) 7.7 0.6 82.0 17.8 25.2 153.2 1019.5 25.5
6-7-2021 20:02 22o 40.71' ( 22.6785) 157o 59.07' (-157.9845) 7.0 246.6 102.4 16.4 25.2 152.5 1019.6 25.5
6-7-2021 19:02 22o 43.27' ( 22.7211) 157o 59.50' (-157.9917) 8.0 173.6 83.5 17.7 25.2 152.9 1019.5 25.5
6-7-2021 18:02 22o 45.05' ( 22.7509) 158o 0.11' (-158.0018) 0.3 80.6 61.3 11.1 24.8 152.0 1019.4 25.5
6-7-2021 17:02 22o 44.98' ( 22.7497) 157o 53.67' (-157.8945) 8.0 266.8 52.4 12.3 24.0 154.0 1019.0 25.6
6-7-2021 16:02 22o 44.76' ( 22.7459) 157o 44.65' (-157.7442) 7.7 271.7 67.6 12.5 24.5 154.5 1018.6 25.5
6-7-2021 15:02 22o 44.51' ( 22.7419) 157o 48.27' (-157.8046) 3.7 89.1 106.7 18.3 23.9 155.0 1018.1 25.5
6-7-2021 14:02 22o 44.06' ( 22.7343) 157o 52.23' (-157.8706) 3.8 91.0 101.8 16.2 24.9 153.0 1017.9 25.6
6-7-2021 13:02 22o 43.44' ( 22.7240) 157o 56.15' (-157.9359) 3.5 90.0 96.6 19.5 24.5 153.2 1017.8 25.6
6-7-2021 12:02 22o 43.41' ( 22.7234) 157o 57.69' (-157.9615) 0.9 122.8 93.2 19.0 23.9 153.2 1018.0 25.5
6-7-2021 11:02 22o 43.88' ( 22.7313) 157o 58.41' (-157.9735) 0.7 122.9 107.0 20.8 24.9 153.9 1018.5 25.5
6-7-2021 10:02 22o 44.40' ( 22.7400) 157o 58.97' (-157.9828) 1.0 124.2 106.0 18.9 23.0 153.7 1019.0 25.5
6-7-2021 9:02 22o 44.94' ( 22.7489) 157o 59.57' (-157.9929) 0.9 110.4 99.0 20.3 24.3 154.2 1019.3 25.5
6-7-2021 8:02 22o 44.95' ( 22.7492) 158o 0.03' (-158.0005) 0.5 104.3 94.9 17.6 24.9 154.1 1019.0 25.5
6-7-2021 7:02 22o 44.99' ( 22.7499) 158o 0.01' (-158.0002) 0.4 103.6 95.9 20.9 24.8 154.1 1018.5 25.5
6-7-2021 6:02 22o 44.99' ( 22.7498) 158o 0.01' (-158.0002) 0.4 101.9 99.3 18.4 23.7 154.9 1018.1 25.6
6-7-2021 5:02 22o 45.00' ( 22.7500) 158o 0.01' (-158.0002) 0.5 105.1 84.5 18.8 24.6 154.0 1017.6 25.6
6-7-2021 4:02 22o 45.00' ( 22.7499) 158o 0.01' (-158.0002) 0.4 99.7 95.8 20.9 23.7 154.8 1017.4 25.6
6-7-2021 3:02 22o 37.07' ( 22.6178) 158o 2.33' (-158.0388) 10.9 16.4 57.4 16.8 24.3 155.1 1016.7 25.6
6-7-2021 2:02 22o 26.33' ( 22.4388) 158o 5.34' (-158.0890) 11.0 17.4 68.7 18.8 25.0 154.0 1016.5 25.7
6-7-2021 1:02 22o 15.57' ( 22.2595) 158o 8.49' (-158.1414) 11.2 20.3 69.2 19.6 25.2 154.5 1016.6 25.8
6-7-2021 0:02 22o 4.81' ( 22.0801) 158o 11.72' (-158.1953) 11.0 18.4 72.2 19.8 24.9 154.6 1016.9 25.7
6-6-2021 23:02 21o 54.19' ( 21.9032) 158o 14.72' (-158.2453) 11.1 16.6 98.4 19.9 24.3 155.0 1017.3 25.8
6-6-2021 22:02 21o 43.14' ( 21.7190) 158o 17.72' (-158.2954) 11.6 15.2 76.4 21.0 25.4 154.5 1017.4 26.7
6-6-2021 21:02 21o 32.35' ( 21.5391) 158o 19.88' (-158.3314) 10.8 357.9 34.8 19.8 26.4 153.5 1017.0 26.8
6-6-2021 20:02 21o 21.64' ( 21.3606) 158o 18.21' (-158.3034) 11.2 310.1 242.9 0.9 26.2 153.7 1017.5 26.6
6-6-2021 19:02 21o 14.62' ( 21.2437) 158o 8.74' (-158.1456) 11.6 330.8 68.7 12.9 26.2 153.8 1017.7 26.6
6-6-2021 18:02 21o 14.46' ( 21.2410) 157o 57.29' (-157.9548) 11.3 261.5 79.7 15.4 26.7 153.6 1017.8 25.7
6-6-2021 17:02 21o 18.91' ( 21.3151) 157o 52.65' (-157.8775) 0.0 208.2 82.2 8.6 25.5 153.7 1017.4 26.5
6-6-2021 16:02 21o 18.91' ( 21.3151) 157o 52.65' (-157.8775) 0.0 208.7 72.5 6.5 24.5 155.2 1017.0 26.5
6-6-2021 15:02 21o 18.91' ( 21.3151) 157o 52.65' (-157.8774) 0.0 208.1 47.9 3.7 24.2 154.6 1016.7 26.5
6-6-2021 14:02 21o 18.91' ( 21.3151) 157o 52.65' (-157.8775) 0.0 208.7 63.5 4.7 24.2 154.5 1016.5 26.5
6-6-2021 13:02 21o 18.91' ( 21.3151) 157o 52.65' (-157.8774) 0.0 208.0 29.2 2.1 23.6 155.1 1016.6 26.5
6-6-2021 12:02 21o 18.91' ( 21.3151) 157o 52.65' (-157.8774) 0.0 208.8 57.0 5.6 24.8 155.1 1016.7 26.5
6-6-2021 11:02 21o 18.91' ( 21.3151) 157o 52.65' (-157.8774) 0.0 207.6 60.5 3.1 25.5 152.6 1017.3 26.5
6-6-2021 10:02 21o 18.91' ( 21.3151) 157o 52.65' (-157.8774) 0.0 208.2 66.6 7.7 25.6 152.4 1017.6 26.6
6-6-2021 9:02 21o 18.91' ( 21.3151) 157o 52.65' (-157.8774) 0.0 208.4 43.2 5.5 25.4 152.3 1017.9 26.6
6-6-2021 8:02 21o 18.91' ( 21.3151) 157o 52.65' (-157.8775) 0.0 208.2 79.1 11.1 25.5 152.3 1018.1 26.6
6-6-2021 7:02 21o 18.91' ( 21.3151) 157o 52.65' (-157.8775) 0.0 208.2 77.6 9.5 25.6 152.3 1017.8 26.7
6-6-2021 6:02 21o 18.91' ( 21.3151) 157o 52.65' (-157.8775) 0.0 208.3 70.0 13.6 25.5 152.4 1017.3 26.7
6-6-2021 5:02 21o 18.91' ( 21.3151) 157o 52.65' (-157.8775) 0.0 208.4 41.9 9.4 26.0 152.0 1016.7 26.7
6-6-2021 4:02 21o 18.91' ( 21.3151) 157o 52.65' (-157.8775) 0.0 208.2 63.5 12.8 26.7 152.1 1016.1 26.7
6-6-2021 3:02 21o 18.91' ( 21.3151) 157o 52.65' (-157.8774) 0.0 207.4 40.1 14.0 27.9 152.4 1015.5 26.7
6-6-2021 2:02 21o 18.91' ( 21.3151) 157o 52.65' (-157.8775) 0.0 208.1 51.0 15.6 28.0 152.2 1015.6 26.7
6-6-2021 1:02 21o 18.91' ( 21.3151) 157o 52.65' (-157.8775) 0.0 208.1 55.2 15.9 28.4 152.1 1015.7 26.7
6-6-2021 0:02 21o 18.91' ( 21.3151) 157o 52.65' (-157.8774) 0.0 207.8 45.7 15.1 27.9 152.1 1016.2 26.6
6-5-2021 23:02 21o 18.90' ( 21.3150) 157o 52.65' (-157.8775) 0.0 208.6 48.0 14.9 28.7 153.1 1016.6 26.6
6-5-2021 22:02 21o 18.91' ( 21.3151) 157o 52.65' (-157.8774) 0.0 208.2 49.4 13.7 28.3 152.0 1017.1 26.6
6-5-2021 21:02 21o 18.91' ( 21.3151) 157o 52.65' (-157.8774) 0.0 208.2 84.6 10.5 28.2 153.0 1017.3 26.6
6-5-2021 20:02 21o 18.91' ( 21.3151) 157o 52.65' (-157.8774) 0.0 207.8 80.7 13.8 27.6 152.7 1017.7 26.6
6-5-2021 19:02 21o 18.90' ( 21.3151) 157o 52.65' (-157.8776) 0.0 208.4 80.8 7.1 27.7 153.0 1017.6 26.6
6-5-2021 18:02 21o 18.91' ( 21.3151) 157o 52.65' (-157.8775) 0.0 208.6 68.8 7.3 26.5 153.3 1017.3 26.5
6-5-2021 17:02 21o 18.91' ( 21.3151) 157o 52.65' (-157.8775) 0.0 208.4 69.9 8.1 25.6 152.0 1017.0 26.5
6-5-2021 16:02 21o 18.91' ( 21.3151) 157o 52.65' (-157.8774) 0.0 208.5 50.5 2.2 24.9 152.6 1016.3 26.5
6-5-2021 15:02 21o 18.91' ( 21.3151) 157o 52.65' (-157.8774) 0.0 208.0 50.8 7.4 25.0 152.4 1015.9 26.6
6-5-2021 14:02 21o 18.91' ( 21.3151) 157o 52.65' (-157.8774) 0.0 208.6 50.3 5.8 25.1 152.6 1015.7 26.6
6-5-2021 13:02 21o 18.91' ( 21.3151) 157o 52.65' (-157.8774) 0.0 208.3 71.0 3.4 25.0 152.5 1015.6 26.6
6-5-2021 12:02 21o 18.91' ( 21.3151) 157o 52.65' (-157.8774) 0.0 208.4 55.1 6.7 25.1 152.5 1016.1 26.6
6-5-2021 11:02 21o 18.91' ( 21.3151) 157o 52.65' (-157.8774) 0.0 208.7 66.9 8.3 25.3 152.4 1016.7 26.6
6-5-2021 10:02 21o 18.91' ( 21.3151) 157o 52.65' (-157.8774) 0.0 208.4 57.4 6.5 25.6 152.8 1016.9 26.7
6-5-2021 9:02 21o 18.91' ( 21.3151) 157o 52.65' (-157.8774) 0.0 207.9 56.5 6.8 25.8 152.4 1017.3 26.7
6-5-2021 8:02 21o 18.91' ( 21.3151) 157o 52.65' (-157.8774) 0.0 208.5 62.4 9.2 26.0 152.5 1017.3 26.7
6-5-2021 7:02 21o 18.91' ( 21.3151) 157o 52.65' (-157.8774) 0.0 207.6 60.2 6.6 26.0 151.7 1016.6 26.7
6-5-2021 6:02 21o 18.91' ( 21.3151) 157o 52.65' (-157.8774) 0.0 208.0 33.1 6.2 26.1 151.0 1016.2 26.7
6-5-2021 5:02 21o 18.91' ( 21.3151) 157o 52.65' (-157.8775) 0.0 208.4 82.6 7.9 26.9 151.0 1015.5 26.7
6-5-2021 4:02 21o 18.91' ( 21.3151) 157o 52.65' (-157.8774) 0.0 208.0 78.2 8.2 28.3 151.3 1014.8 26.7
6-5-2021 3:02 21o 18.91' ( 21.3151) 157o 52.65' (-157.8774) 0.0 208.0 98.7 8.0 28.7 151.0 1014.3 26.7
6-5-2021 2:02 21o 18.91' ( 21.3151) 157o 52.65' (-157.8774) 0.0 208.1 42.1 12.6 28.7 152.4 1014.3 26.7
6-5-2021 1:02 21o 18.91' ( 21.3151) 157o 52.65' (-157.8774) 0.0 208.1 36.6 11.3 29.3 153.2 1014.3 26.7
6-5-2021 0:02 21o 18.91' ( 21.3151) 157o 52.65' (-157.8774) 0.0 208.0 48.4 13.9 28.7 153.2 1014.9 26.6
6-4-2021 23:02 21o 18.91' ( 21.3151) 157o 52.65' (-157.8775) 0.0 208.3 80.5 9.1 29.8 154.0 1015.1 26.6
6-4-2021 22:02 21o 18.91' ( 21.3151) 157o 52.65' (-157.8774) 0.0 208.5 117.6 11.2 28.7 154.6 1015.4 26.6
6-4-2021 21:02 21o 18.91' ( 21.3151) 157o 52.65' (-157.8775) 0.0 208.2 101.8 8.1 29.0 154.9 1015.8 26.6
6-4-2021 20:02 21o 18.90' ( 21.3150) 157o 52.65' (-157.8776) 0.0 208.2 80.3 8.2 27.9 154.0 1015.8 26.6
6-4-2021 19:02 21o 18.91' ( 21.3151) 157o 52.65' (-157.8774) 0.0 207.7 73.0 7.0 27.4 154.2 1016.1 26.5
6-4-2021 18:02 21o 18.91' ( 21.3151) 157o 52.65' (-157.8775) 0.0 208.9 90.4 6.1 26.9 153.3 1015.8 26.5
6-4-2021 17:02 21o 18.91' ( 21.3151) 157o 52.65' (-157.8774) 0.0 208.6 70.7 3.7 25.6 153.5 1015.3 26.5
6-4-2021 16:02 21o 18.91' ( 21.3151) 157o 52.65' (-157.8774) 0.0 207.8 7.6 3.1 24.6 153.0 1014.7 26.5
6-4-2021 15:02 21o 18.91' ( 21.3151) 157o 52.65' (-157.8774) 0.0 207.8 62.7 0.5 24.6 153.9 1014.3 26.5
6-4-2021 14:02 21o 18.91' ( 21.3151) 157o 52.65' (-157.8774) 0.0 207.9 337.8 4.2 24.7 153.9 1014.0 26.5
6-4-2021 13:02 21o 18.91' ( 21.3151) 157o 52.65' (-157.8774) 0.0 207.9 49.7 2.2 24.6 154.0 1013.9 26.5
6-4-2021 12:02 21o 18.91' ( 21.3151) 157o 52.65' (-157.8774) 0.0 208.1 0.0 0.0 24.4 153.9 1014.4 26.5
6-4-2021 11:02 21o 18.91' ( 21.3151) 157o 52.65' (-157.8774) 0.0 208.3 80.9 4.0 24.9 153.7 1014.6 26.5
6-4-2021 10:02 21o 18.91' ( 21.3151) 157o 52.65' (-157.8774) 0.0 208.7 165.0 2.2 24.6 153.8 1015.1 26.6
6-4-2021 9:02 21o 18.91' ( 21.3151) 157o 52.65' (-157.8774) 0.0 208.5 121.7 5.4 24.9 153.6 1015.5 26.6
6-4-2021 8:02 21o 18.91' ( 21.3151) 157o 52.65' (-157.8774) 0.0 208.0 56.2 7.1 24.5 153.8 1016.1 26.6
6-4-2021 7:02 21o 18.91' ( 21.3151) 157o 52.65' (-157.8774) 0.0 208.9 61.4 8.2 24.1 153.9 1016.1 26.6
6-4-2021 6:02 21o 18.91' ( 21.3151) 157o 52.65' (-157.8774) 0.0 208.6 61.4 9.0 24.4 153.8 1015.9 26.6
6-4-2021 5:02 21o 18.91' ( 21.3151) 157o 52.65' (-157.8774) 0.0 208.3 77.1 7.2 24.9 153.7 1015.3 26.6
6-4-2021 4:02 21o 18.91' ( 21.3151) 157o 52.65' (-157.8774) 0.0 207.9 44.3 8.5 26.0 153.9 1014.8 26.6
6-4-2021 3:02 21o 18.91' ( 21.3151) 157o 52.65' (-157.8774) 0.0 208.4 45.7 10.3 26.4 154.0 1014.3 26.7
6-4-2021 2:02 21o 18.91' ( 21.3151) 157o 52.65' (-157.8774) 0.0 208.3 77.1 11.4 28.6 153.5 1014.0 26.6
6-4-2021 1:02 21o 18.90' ( 21.3150) 157o 52.65' (-157.8775) 0.0 208.5 54.7 12.2 29.0 153.0 1014.6 26.6
6-4-2021 0:02 21o 18.91' ( 21.3151) 157o 52.65' (-157.8774) 0.0 207.9 61.3 12.9 28.9 152.7 1014.9 26.6
6-3-2021 23:02 21o 18.91' ( 21.3151) 157o 52.65' (-157.8774) 0.0 207.9 57.4 15.9 29.2 155.3 1015.5 26.6
6-3-2021 22:02 21o 18.91' ( 21.3151) 157o 52.65' (-157.8774) 0.0 208.2 51.7 9.5 29.3 155.5 1016.0 26.5
6-3-2021 21:02 21o 18.91' ( 21.3151) 157o 52.65' (-157.8775) 0.0 208.7 42.2 14.7 28.4 155.5 1016.2 26.5
6-3-2021 20:02 21o 18.91' ( 21.3151) 157o 52.65' (-157.8774) 0.0 208.4 36.8 3.8 28.7 155.4 1016.7 26.5
6-3-2021 19:02 21o 18.90' ( 21.3151) 157o 52.65' (-157.8775) 0.0 208.0 145.5 2.8 27.2 154.8 1016.7 26.5
6-3-2021 18:02 21o 18.91' ( 21.3151) 157o 52.65' (-157.8774) 0.0 208.0 36.7 4.8 26.8 154.9 1016.7 26.5
6-3-2021 17:02 21o 18.91' ( 21.3151) 157o 52.65' (-157.8774) 0.0 208.1 95.3 3.8 26.4 154.8 1016.5 26.6
6-3-2021 16:02 21o 18.91' ( 21.3151) 157o 52.65' (-157.8774) 0.0 208.2 66.0 5.9 25.2 154.9 1015.9 26.6
6-3-2021 15:02 21o 18.91' ( 21.3151) 157o 52.65' (-157.8775) 0.0 208.5 50.7 6.3 25.1 154.7 1015.4 26.6
6-3-2021 14:02 21o 18.91' ( 21.3151) 157o 52.65' (-157.8775) 0.0 208.5 51.0 12.0 25.1 154.8 1015.1 26.6
6-3-2021 13:02 21o 18.91' ( 21.3151) 157o 52.65' (-157.8775) 0.0 208.6 48.2 10.2 25.1 154.5 1015.1 26.7
6-3-2021 12:02 21o 18.91' ( 21.3151) 157o 52.65' (-157.8774) 0.0 207.7 52.8 11.4 25.1 154.8 1015.5 26.7
6-3-2021 11:02 21o 18.91' ( 21.3151) 157o 52.65' (-157.8774) 0.0 208.2 55.5 12.0 25.3 154.8 1016.3 26.7
6-3-2021 10:02 21o 18.91' ( 21.3151) 157o 52.65' (-157.8774) 0.0 207.9 36.7 11.4 25.5 154.6 1016.9 26.7
6-3-2021 9:02 21o 18.91' ( 21.3151) 157o 52.65' (-157.8774) 0.0 208.1 42.8 10.1 25.5 153.8 1017.2 26.7
6-3-2021 8:02 21o 18.91' ( 21.3151) 157o 52.65' (-157.8774) 0.0 207.7 41.8 8.8 25.8 154.0 1017.3 26.7
6-3-2021 7:02 21o 18.91' ( 21.3151) 157o 52.65' (-157.8774) 0.0 208.0 51.8 8.4 25.7 154.9 1017.0 26.8
6-3-2021 6:02 21o 18.91' ( 21.3151) 157o 52.65' (-157.8774) 0.0 208.2 61.5 8.9 26.1 154.0 1016.6 26.8
6-3-2021 5:02 21o 18.91' ( 21.3151) 157o 52.65' (-157.8774) 0.0 208.2 48.2 8.8 26.2 154.7 1016.2 26.8
6-3-2021 4:02 21o 18.91' ( 21.3151) 157o 52.65' (-157.8775) 0.0 208.1 60.4 11.5 28.0 154.0 1015.7 26.8
6-3-2021 3:02 21o 18.91' ( 21.3151) 157o 52.65' (-157.8774) 0.0 208.1 63.0 12.4 28.8 154.9 1015.4 26.8
6-3-2021 2:02 21o 18.91' ( 21.3151) 157o 52.65' (-157.8774) 0.0 208.5 73.3 8.9 28.6 155.0 1015.5 26.9
6-3-2021 1:02 21o 18.91' ( 21.3151) 157o 52.65' (-157.8774) 0.0 208.5 53.7 10.8 29.2 155.2 1015.7 26.9
6-3-2021 0:02 21o 18.91' ( 21.3151) 157o 52.65' (-157.8774) 0.0 207.9 52.9 11.9 29.7 154.9 1016.2 27.0
6-2-2021 23:02 21o 18.91' ( 21.3151) 157o 52.65' (-157.8774) 0.0 208.3 60.2 11.0 29.3 154.9 1016.6 26.7
6-2-2021 22:02 21o 18.91' ( 21.3151) 157o 52.65' (-157.8774) 0.0 208.1 49.9 13.9 29.4 154.4 1017.3 26.6
6-2-2021 21:02 21o 18.91' ( 21.3151) 157o 52.65' (-157.8774) 0.0 208.1 44.2 8.0 29.5 154.2 1017.6 26.6
6-2-2021 20:02 21o 18.93' ( 21.3154) 157o 52.65' (-157.8775) 0.2 36.7 68.3 5.2 28.2 154.6 1017.7 26.5
6-2-2021 19:02 21o 17.33' ( 21.2888) 157o 52.49' (-157.8748) 7.0 24.7 51.5 5.7 26.0 153.4 1017.9 26.3
6-2-2021 18:02 21o 14.79' ( 21.2465) 157o 54.31' (-157.9051) 0.6 1.8 98.1 14.1 25.9 151.3 1017.7 25.7
6-2-2021 17:02 21o 12.61' ( 21.2101) 157o 57.53' (-157.9588) 5.2 65.6 76.2 16.5 25.2 151.4 1017.3 26.1
6-2-2021 16:02 21o 11.05' ( 21.1841) 158o 2.28' (-158.0381) 5.0 103.1 76.5 16.3 24.7 151.7 1017.0 26.1
6-2-2021 15:02 21o 13.80' ( 21.2301) 158o 7.90' (-158.1316) 10.9 109.8 45.0 13.0 24.5 151.6 1016.7 26.3
6-2-2021 14:02 21o 21.44' ( 21.3573) 158o 16.66' (-158.2776) 11.6 163.6 53.5 9.0 25.2 153.5 1016.6 26.4
6-2-2021 13:02 21o 32.00' ( 21.5333) 158o 19.95' (-158.3325) 9.1 163.4 53.9 14.6 24.8 151.8 1016.0 26.0
6-2-2021 12:02 21o 41.91' ( 21.6985) 158o 18.07' (-158.3012) 11.5 194.5 64.6 20.5 25.4 151.0 1017.4 26.0
6-2-2021 11:02 21o 53.05' ( 21.8842) 158o 14.87' (-158.2478) 11.3 194.7 67.9 19.2 25.5 151.5 1018.1 26.2
6-2-2021 10:02 22o 4.42' ( 22.0737) 158o 11.43' (-158.1906) 11.9 193.0 72.2 15.7 25.4 151.5 1018.7 26.5
6-2-2021 9:02 22o 15.53' ( 22.2588) 158o 8.46' (-158.1410) 11.2 189.2 76.0 14.0 25.4 151.8 1019.2 25.9
6-2-2021 8:02 22o 26.40' ( 22.4400) 158o 5.33' (-158.0888) 10.8 187.8 91.1 11.6 25.3 151.6 1019.2 26.1
6-2-2021 7:02 22o 37.00' ( 22.6167) 158o 2.26' (-158.0376) 11.2 192.9 63.2 9.0 25.5 151.4 1019.1 25.7
6-2-2021 6:02 22o 44.56' ( 22.7426) 158o 0.35' (-158.0058) 0.5 160.7 83.1 6.8 25.7 151.8 1018.7 26.1
6-2-2021 5:02 22o 44.56' ( 22.7426) 158o 0.35' (-158.0058) 0.5 131.2 64.2 4.3 25.6 151.6 1018.2 26.1
6-2-2021 4:02 22o 44.55' ( 22.7425) 158o 0.35' (-158.0058) 0.6 36.8 104.7 13.0 25.7 152.1 1017.7 26.7
6-2-2021 3:02 22o 44.50' ( 22.7417) 158o 0.29' (-158.0049) 0.6 293.6 64.0 5.8 27.4 151.5 1017.8 26.1
6-2-2021 2:02 22o 44.49' ( 22.7414) 158o 0.36' (-158.0060) 0.0 294.6 70.7 5.1 28.6 151.6 1018.1 25.5
6-2-2021 1:02 22o 44.49' ( 22.7415) 158o 0.36' (-158.0061) 0.4 287.9 98.1 4.9 28.6 151.0 1018.5 25.6
6-2-2021 0:02 22o 44.49' ( 22.7415) 158o 0.36' (-158.0060) 0.5 295.2 106.7 6.0 28.3 151.3 1018.9 25.7
6-1-2021 23:02 22o 44.49' ( 22.7415) 158o 0.36' (-158.0060) 0.5 304.8 72.6 5.0 27.5 151.2 1019.1 25.4
6-1-2021 22:02 22o 44.50' ( 22.7416) 158o 0.36' (-158.0060) 0.5 314.1 83.3 5.3 27.6 151.5 1019.5 25.4
6-1-2021 21:02 22o 44.53' ( 22.7422) 158o 0.26' (-158.0044) 0.7 131.6 120.4 5.2 26.7 151.0 1019.8 26.4
6-1-2021 20:02 22o 44.31' ( 22.7385) 158o 0.33' (-158.0054) 0.5 141.9 127.2 6.9 26.5 151.6 1020.0 26.1
6-1-2021 19:02 22o 44.31' ( 22.7385) 158o 0.33' (-158.0054) 0.0 137.9 121.0 6.5 26.6 151.6 1020.1 26.0
6-1-2021 18:02 22o 44.32' ( 22.7386) 158o 0.33' (-158.0054) 0.5 121.4 119.6 6.1 26.5 151.3 1019.9 26.0
6-1-2021 17:02 22o 44.32' ( 22.7386) 158o 0.33' (-158.0054) 0.5 111.9 117.1 8.9 26.3 151.6 1019.5 25.8
6-1-2021 16:02 22o 44.32' ( 22.7387) 158o 0.33' (-158.0055) 0.5 74.8 108.4 9.4 25.1 151.6 1018.9 25.7
6-1-2021 15:02 22o 44.32' ( 22.7387) 158o 0.33' (-158.0055) 0.4 70.9 120.5 9.6 25.1 151.9 1018.5 25.5
6-1-2021 14:02 22o 44.35' ( 22.7392) 158o 0.34' (-158.0057) 0.4 51.9 117.6 9.4 25.4 151.8 1018.4 26.2
6-1-2021 13:02 22o 44.35' ( 22.7392) 158o 0.41' (-158.0068) 0.5 48.5 122.6 7.9 25.6 151.0 1018.5 26.0
6-1-2021 12:02 22o 44.31' ( 22.7385) 158o 0.41' (-158.0068) 0.5 290.8 112.9 4.6 26.0 151.8 1019.0 25.9
6-1-2021 11:02 22o 44.31' ( 22.7386) 158o 0.39' (-158.0065) 0.4 251.8 113.1 4.3 26.2 151.5 1019.6 25.5
6-1-2021 10:02 22o 44.32' ( 22.7387) 158o 0.39' (-158.0065) 0.6 265.3 91.0 4.4 25.9 151.6 1020.0 25.7
6-1-2021 9:02 22o 44.32' ( 22.7387) 158o 0.38' (-158.0063) 0.5 268.1 126.4 4.6 26.5 151.6 1020.1 25.6
6-1-2021 8:02 22o 44.34' ( 22.7390) 158o 0.39' (-158.0065) 0.3 256.7 109.9 4.8 26.7 151.6 1019.8 25.9
6-1-2021 7:02 22o 44.33' ( 22.7388) 158o 0.38' (-158.0064) 0.4 232.2 114.8 5.9 26.4 151.0 1019.4 26.5
6-1-2021 6:02 22o 44.33' ( 22.7388) 158o 0.37' (-158.0062) 0.0 196.3 77.2 3.8 26.7 151.7 1018.9 25.9
6-1-2021 5:02 22o 44.33' ( 22.7388) 158o 0.36' (-158.0060) 0.4 163.9 23.1 1.9 27.5 151.6 1018.4 25.6
6-1-2021 4:02 22o 44.33' ( 22.7388) 158o 0.36' (-158.0061) 0.3 156.8 137.7 2.2 28.0 151.0 1017.6 26.5
6-1-2021 3:02 22o 44.33' ( 22.7388) 158o 0.36' (-158.0061) 0.3 151.2 122.7 2.5 27.9 151.6 1017.1 26.8
6-1-2021 2:02 22o 44.33' ( 22.7388) 158o 0.36' (-158.0061) 0.4 160.5 145.0 4.0 26.5 151.0 1017.0 25.5
6-1-2021 1:02 22o 44.33' ( 22.7388) 158o 0.36' (-158.0060) 0.2 159.2 157.7 6.0 26.3 151.6 1016.9 25.5
6-1-2021 0:02 22o 44.33' ( 22.7388) 158o 0.36' (-158.0060) 0.3 160.2 170.0 5.6 26.5 151.4 1017.3 25.6
5-31-2021 23:02 22o 44.33' ( 22.7388) 158o 0.36' (-158.0060) 0.3 160.4 149.9 4.4 26.5 151.8 1017.7 25.5
5-31-2021 22:02 22o 44.32' ( 22.7387) 158o 0.36' (-158.0060) 0.3 159.1 163.1 5.1 26.2 151.8 1017.9 25.4
5-31-2021 21:02 22o 44.33' ( 22.7388) 158o 0.36' (-158.0060) 0.4 168.1 160.1 6.3 25.6 151.9 1017.8 25.4
5-31-2021 20:02 22o 44.28' ( 22.7381) 158o 0.36' (-158.0060) 0.3 167.4 159.6 7.2 25.8 151.9 1017.7 25.4
5-31-2021 19:02 22o 44.38' ( 22.7396) 158o 0.35' (-158.0058) 0.3 171.3 172.9 5.6 26.8 151.0 1017.0 25.4
5-31-2021 18:02 22o 44.33' ( 22.7388) 158o 0.35' (-158.0058) 0.3 151.5 166.3 5.4 26.7 152.0 1017.5 25.3
5-31-2021 17:02 22o 44.36' ( 22.7393) 158o 0.35' (-158.0058) 0.3 130.2 148.5 3.6 27.4 151.0 1017.0 25.4
5-31-2021 16:02 22o 44.36' ( 22.7394) 158o 0.34' (-158.0057) 0.3 97.2 175.7 5.0 25.1 152.0 1016.4 25.4
5-31-2021 15:02 22o 44.36' ( 22.7393) 158o 0.35' (-158.0058) 0.3 88.8 175.7 4.9 25.0 152.0 1015.8 25.4
5-31-2021 14:02 22o 44.43' ( 22.7405) 158o 0.33' (-158.0055) 0.0 72.6 178.2 6.5 25.1 152.0 1015.4 25.4
5-31-2021 13:02 22o 44.41' ( 22.7401) 158o 0.34' (-158.0057) 0.0 87.1 187.5 7.2 25.4 151.9 1015.2 25.4
5-31-2021 12:02 22o 44.40' ( 22.7400) 158o 0.34' (-158.0057) 0.4 128.0 194.1 8.9 25.0 151.0 1015.4 25.4
5-31-2021 11:02 22o 44.35' ( 22.7392) 158o 0.36' (-158.0059) 0.3 166.2 178.0 9.1 24.7 151.9 1015.7 25.5
5-31-2021 10:02 22o 44.36' ( 22.7393) 158o 0.37' (-158.0061) 0.3 240.2 169.0 9.5 25.3 151.8 1016.2 25.5
5-31-2021 9:02 22o 44.30' ( 22.7383) 158o 0.45' (-158.0075) 0.3 223.1 178.6 8.7 25.0 151.8 1016.7 25.5
5-31-2021 8:02 22o 44.30' ( 22.7383) 158o 0.45' (-158.0075) 0.2 223.4 190.2 5.7 25.0 151.7 1016.6 25.6
5-31-2021 7:02 22o 44.30' ( 22.7384) 158o 0.45' (-158.0075) 0.3 203.1 203.4 6.5 25.0 151.6 1016.4 25.7
5-31-2021 6:02 22o 44.30' ( 22.7383) 158o 0.45' (-158.0075) 0.2 201.2 222.1 6.7 25.1 151.5 1016.0 25.7
5-31-2021 5:02 22o 44.30' ( 22.7383) 158o 0.45' (-158.0075) 0.2 229.7 221.6 6.4 25.5 151.8 1015.6 25.8
5-31-2021 4:02 22o 44.30' ( 22.7384) 158o 0.42' (-158.0071) 0.4 231.3 231.3 5.7 26.7 152.0 1015.0 25.9
5-31-2021 3:02 22o 44.33' ( 22.7389) 158o 0.16' (-158.0026) 0.4 156.6 244.1 6.3 26.5 152.1 1014.8 25.5
5-31-2021 2:02 22o 44.31' ( 22.7384) 158o 0.40' (-158.0066) 0.3 183.0 240.9 8.6 26.4 152.1 1014.7 25.6
5-31-2021 1:02 22o 44.30' ( 22.7383) 158o 0.37' (-158.0062) 0.2 191.0 219.6 8.8 26.0 151.0 1014.8 25.5
5-31-2021 0:02 22o 44.30' ( 22.7383) 158o 0.37' (-158.0061) 0.3 181.6 221.7 10.9 26.1 151.9 1015.0 25.5
5-30-2021 23:02 22o 44.30' ( 22.7384) 158o 0.37' (-158.0061) 0.2 165.0 175.3 9.6 25.4 151.9 1015.2 25.5
5-30-2021 22:02 22o 44.30' ( 22.7383) 158o 0.37' (-158.0062) 0.3 170.1 189.6 10.7 25.4 151.9 1015.6 25.4
5-30-2021 21:02 22o 44.30' ( 22.7384) 158o 0.37' (-158.0061) 0.2 172.8 183.2 10.1 25.2 151.7 1015.6 25.4
5-30-2021 20:02 22o 44.30' ( 22.7384) 158o 0.37' (-158.0061) 0.2 170.4 170.7 7.7 25.0 151.7 1015.6 25.3
5-30-2021 19:02 22o 44.31' ( 22.7384) 158o 0.33' (-158.0055) 0.3 170.5 161.2 6.5 24.9 152.1 1015.4 25.2
5-30-2021 18:02 22o 44.30' ( 22.7384) 158o 0.33' (-158.0056) 0.2 189.3 178.0 7.2 24.6 151.8 1015.4 25.2
5-30-2021 17:02 22o 44.31' ( 22.7385) 158o 0.33' (-158.0055) 0.2 158.6 193.7 11.2 23.8 153.0 1014.7 25.1
5-30-2021 16:02 22o 44.32' ( 22.7386) 158o 0.36' (-158.0060) 0.2 149.5 164.6 10.7 23.6 152.2 1014.2 25.1
5-30-2021 15:02 22o 44.31' ( 22.7385) 158o 0.35' (-158.0058) 0.2 136.2 216.4 14.1 23.7 152.0 1014.0 25.1
5-30-2021 14:02 22o 44.30' ( 22.7384) 158o 0.31' (-158.0052) 0.2 127.1 159.4 9.3 24.5 152.0 1014.2 25.2
5-30-2021 13:02 22o 44.32' ( 22.7386) 158o 0.37' (-158.0061) 0.2 132.4 164.4 10.9 24.5 151.9 1014.3 25.2
5-30-2021 12:02 22o 44.30' ( 22.7384) 158o 0.35' (-158.0058) 0.2 142.2 152.5 10.0 24.3 151.7 1014.6 25.2
5-30-2021 11:02 22o 44.29' ( 22.7382) 158o 0.35' (-158.0058) 0.2 141.8 149.6 10.9 24.4 151.6 1015.0 25.2
5-30-2021 10:02 22o 44.29' ( 22.7382) 158o 0.35' (-158.0058) 0.2 141.9 144.6 8.7 24.5 151.7 1015.6 25.3
5-30-2021 9:02 22o 44.29' ( 22.7381) 158o 0.34' (-158.0057) 0.2 143.8 144.2 10.3 24.4 152.0 1015.8 25.3
5-30-2021 8:02 22o 44.30' ( 22.7384) 158o 0.37' (-158.0062) 0.2 155.4 139.0 9.9 24.4 152.9 1015.8 25.4
5-30-2021 7:02 22o 44.31' ( 22.7384) 158o 0.38' (-158.0063) 0.2 174.8 140.8 9.1 24.6 153.4 1015.2 25.4
5-30-2021 6:02 22o 44.30' ( 22.7384) 158o 0.38' (-158.0063) 0.2 175.2 145.2 9.6 24.6 153.0 1015.2 25.5
5-30-2021 5:02 22o 44.37' ( 22.7395) 158o 0.43' (-158.0072) 0.2 173.6 139.6 11.3 24.6 154.1 1014.5 25.4
5-30-2021 4:02 22o 44.37' ( 22.7395) 158o 0.43' (-158.0072) 0.2 153.8 135.3 8.9 25.1 155.0 1014.2 25.5
5-30-2021 3:02 22o 44.37' ( 22.7395) 158o 0.43' (-158.0072) 0.2 138.3 121.6 8.9 25.6 155.4 1013.9 25.5
5-30-2021 2:02 22o 44.37' ( 22.7396) 158o 0.43' (-158.0072) 0.2 120.3 130.6 8.0 25.9 155.0 1014.2 25.6
5-30-2021 1:02 22o 44.37' ( 22.7395) 158o 0.42' (-158.0071) 0.2 120.4 130.1 8.6 25.4 154.9 1014.4 25.4
5-30-2021 0:02 22o 44.60' ( 22.7434) 158o 0.44' (-158.0074) 0.8 145.4 120.3 7.8 25.1 154.8 1015.1 25.3
5-29-2021 23:02 22o 44.41' ( 22.7402) 158o 0.19' (-158.0032) 0.7 300.6 125.6 7.3 26.2 155.2 1015.5 25.2
5-29-2021 22:02 22o 44.16' ( 22.7360) 158o 0.34' (-158.0056) 0.8 106.1 116.6 10.2 24.9 155.2 1015.6 25.2
5-29-2021 21:02 22o 44.31' ( 22.7386) 158o 0.66' (-158.0109) 1.0 123.2 119.5 10.4 24.7 154.8 1016.0 25.2
5-29-2021 20:02 22o 44.46' ( 22.7411) 158o 0.77' (-158.0128) 0.0 203.8 122.6 11.8 25.9 155.7 1016.3 25.1
5-29-2021 19:02 22o 44.37' ( 22.7395) 158o 0.43' (-158.0072) 0.0 134.7 117.8 11.3 24.9 154.8 1016.4 25.1
5-29-2021 18:02 22o 44.31' ( 22.7384) 158o 0.39' (-158.0064) 0.0 132.8 115.0 11.0 24.9 154.8 1016.5 25.1
5-29-2021 17:02 22o 44.29' ( 22.7382) 158o 0.55' (-158.0091) 10.2 359.0 102.3 12.5 24.4 154.8 1015.9 25.1
5-29-2021 16:02 22o 32.77' ( 22.5462) 158o 3.45' (-158.0575) 11.8 15.4 101.5 12.4 24.0 155.1 1015.3 25.0
5-29-2021 15:02 22o 21.56' ( 22.3594) 158o 7.16' (-158.1194) 11.7 24.4 91.9 12.8 23.9 154.9 1014.8 25.0
5-29-2021 14:02 22o 10.38' ( 22.1729) 158o 10.21' (-158.1702) 11.4 11.8 86.9 12.5 24.0 155.5 1014.7 25.1
5-29-2021 13:02 21o 59.27' ( 21.9878) 158o 13.10' (-158.2183) 11.1 11.2 77.9 13.1 24.2 155.6 1014.8 25.6
5-29-2021 12:02 21o 49.50' ( 21.8249) 158o 15.87' (-158.2645) 10.0 17.7 83.0 13.7 24.1 154.0 1015.3 25.5
5-29-2021 11:02 21o 39.76' ( 21.6626) 158o 18.65' (-158.3109) 11.3 15.8 74.4 9.5 24.1 154.0 1015.9 26.0
5-29-2021 10:02 21o 28.73' ( 21.4788) 158o 18.90' (-158.3150) 11.6 339.7 112.3 6.1 25.2 153.6 1016.5 26.2
5-29-2021 9:02 21o 18.65' ( 21.3109) 158o 13.95' (-158.2324) 11.1 310.0 85.5 15.5 24.9 153.0 1017.0 26.1
5-29-2021 8:02 21o 14.77' ( 21.2461) 158o 3.62' (-158.0603) 11.6 271.1 33.3 5.7 24.9 155.8 1017.1 25.9
5-29-2021 7:02 21o 16.92' ( 21.2819) 157o 52.82' (-157.8803) 9.8 228.1 57.0 13.1 25.0 153.5 1016.8 26.0
5-29-2021 6:02 21o 18.91' ( 21.3151) 157o 52.65' (-157.8775) 0.0 210.2 41.2 13.4 25.4 153.6 1016.2 26.4
5-29-2021 5:02 21o 18.91' ( 21.3151) 157o 52.65' (-157.8775) 0.0 209.3 42.0 14.1 25.8 154.1 1015.4 26.5
5-29-2021 4:02 21o 18.91' ( 21.3151) 157o 52.65' (-157.8775) 0.0 209.6 59.8 12.9 27.4 154.9 1014.8 26.6
5-29-2021 3:02 21o 15.15' ( 21.2525) 157o 53.56' (-157.8926) 7.0 336.1 90.6 14.1 26.1 153.7 1014.3 25.6
5-29-2021 2:02 21o 12.09' ( 21.2015) 157o 43.30' (-157.7217) 12.9 271.3 54.8 14.9 26.0 152.8 1014.8 25.3
5-29-2021 1:02 21o 19.28' ( 21.3213) 157o 33.26' (-157.5543) 11.7 218.6 67.9 14.8 26.7 153.3 1015.2 25.0
5-29-2021 0:02 21o 28.26' ( 21.4710) 157o 25.44' (-157.4239) 11.4 205.9 68.5 17.3 25.5 153.2 1015.7 25.1
5-28-2021 23:02 21o 28.39' ( 21.4731) 157o 24.48' (-157.4080) 0.2 99.6 83.1 14.9 24.5 152.4 1016.3 25.1
5-28-2021 22:02 21o 28.39' ( 21.4731) 157o 24.52' (-157.4087) 0.4 99.5 87.7 16.8 24.5 152.1 1016.7 25.1
5-28-2021 21:02 21o 28.39' ( 21.4731) 157o 25.06' (-157.4176) 0.5 98.6 90.4 14.4 24.5 152.1 1017.0 25.0
5-28-2021 20:02 21o 28.39' ( 21.4731) 157o 25.25' (-157.4209) 0.2 98.3 89.5 16.4 24.6 152.4 1017.5 24.9
5-28-2021 19:02 21o 28.38' ( 21.4730) 157o 25.25' (-157.4208) 0.2 96.2 93.3 15.6 24.5 152.3 1017.1 24.9
5-28-2021 18:02 21o 28.38' ( 21.4731) 157o 25.26' (-157.4210) 0.3 104.9 85.6 17.2 24.8 151.9 1016.9 24.9
5-28-2021 17:02 21o 27.00' ( 21.4501) 157o 23.47' (-157.3912) 5.6 90.9 79.6 15.1 24.3 152.0 1016.7 24.9
5-28-2021 16:02 21o 28.63' ( 21.4772) 157o 30.25' (-157.5042) 7.9 116.7 88.0 14.2 24.1 151.9 1016.4 25.2
5-28-2021 15:02 21o 25.92' ( 21.4321) 157o 32.50' (-157.5417) 5.0 2.0 78.5 16.2 24.3 152.1 1016.1 25.3
5-28-2021 14:02 21o 28.66' ( 21.4777) 157o 34.51' (-157.5752) 5.7 358.7 83.6 16.9 24.3 151.9 1016.1 25.5
5-28-2021 13:02 21o 27.86' ( 21.4643) 157o 35.50' (-157.5917) 6.3 181.6 74.7 16.5 24.4 151.9 1016.4 25.6
5-28-2021 12:02 21o 25.60' ( 21.4266) 157o 36.73' (-157.6121) 4.2 59.0 79.3 13.9 24.4 151.6 1016.8 25.5
5-28-2021 11:02 21o 28.10' ( 21.4684) 157o 36.00' (-157.6001) 6.2 357.4 74.4 15.0 24.4 152.0 1017.5 25.6
5-28-2021 10:02 21o 28.36' ( 21.4726) 157o 34.99' (-157.5831) 6.0 186.4 69.0 13.8 25.0 152.1 1018.1 25.5
5-28-2021 9:02 21o 25.60' ( 21.4267) 157o 33.44' (-157.5574) 5.7 274.3 65.8 13.1 25.3 151.9 1018.7 25.2
5-28-2021 8:02 21o 29.20' ( 21.4866) 157o 32.01' (-157.5334) 6.0 358.2 64.6 15.7 24.6 152.1 1018.6 25.2
5-28-2021 7:02 21o 26.65' ( 21.4441) 157o 26.79' (-157.4465) 11.2 261.0 79.9 14.6 25.1 151.8 1018.2 25.0
5-28-2021 6:02 21o 27.42' ( 21.4570) 157o 22.62' (-157.3770) 0.4 104.8 82.9 14.2 24.5 151.9 1017.6 25.0
5-28-2021 5:02 21o 27.42' ( 21.4570) 157o 22.62' (-157.3770) 0.3 104.9 80.1 15.7 24.5 151.8 1017.2 25.1
5-28-2021 4:02 21o 27.41' ( 21.4569) 157o 22.62' (-157.3770) 0.4 105.6 81.6 16.6 24.9 151.9 1017.0 25.1
5-28-2021 3:02 21o 27.38' ( 21.4563) 157o 22.63' (-157.3771) 0.3 105.6 78.2 14.9 25.1 151.0 1017.0 25.1
5-28-2021 2:02 21o 27.21' ( 21.4535) 157o 22.63' (-157.3772) 0.5 104.8 74.8 15.4 25.4 151.7 1017.0 25.1
5-28-2021 1:02 21o 27.03' ( 21.4505) 157o 22.72' (-157.3787) 0.4 99.1 81.3 16.3 25.0 151.9 1017.3 25.1
5-28-2021 0:02 21o 26.89' ( 21.4482) 157o 22.83' (-157.3805) 0.4 96.0 80.4 14.0 25.1 151.0 1017.7 25.1
5-27-2021 23:02 21o 26.71' ( 21.4452) 157o 22.97' (-157.3828) 0.4 95.2 79.9 14.5 24.8 151.5 1018.3 25.0
5-27-2021 22:02 21o 26.56' ( 21.4426) 157o 23.10' (-157.3850) 0.3 94.9 87.8 15.3 24.8 151.6 1018.9 25.0
5-27-2021 21:02 21o 26.49' ( 21.4414) 157o 23.17' (-157.3862) 0.3 95.1 84.4 13.7 24.8 151.7 1019.2 25.0
5-27-2021 20:02 21o 26.49' ( 21.4414) 157o 23.17' (-157.3862) 0.3 95.4 87.9 13.3 24.6 152.1 1019.2 24.9
5-27-2021 19:02 21o 26.49' ( 21.4414) 157o 23.17' (-157.3862) 0.5 95.8 93.1 13.7 24.7 152.2 1019.2 24.9
5-27-2021 18:02 21o 26.51' ( 21.4419) 157o 27.25' (-157.4541) 7.4 87.7 89.5 16.0 24.5 151.8 1018.8 25.0
5-27-2021 17:02 21o 29.51' ( 21.4918) 157o 31.00' (-157.5167) 6.0 175.3 82.1 13.6 25.8 151.8 1018.6 25.1
5-27-2021 16:02 21o 26.22' ( 21.4371) 157o 28.99' (-157.4832) 6.3 184.0 78.0 11.5 24.8 151.9 1018.1 25.0
5-27-2021 15:02 21o 28.14' ( 21.4690) 157o 28.00' (-157.4667) 5.8 358.6 78.5 12.1 24.5 152.1 1017.7 25.0
5-27-2021 14:02 21o 29.21' ( 21.4868) 157o 26.98' (-157.4496) 6.2 179.4 81.5 15.3 24.6 152.1 1017.0 25.0
5-27-2021 13:02 21o 25.55' ( 21.4259) 157o 25.55' (-157.4258) 6.2 270.2 74.3 13.0 24.7 152.1 1017.7 25.0
5-27-2021 12:02 21o 28.53' ( 21.4755) 157o 24.01' (-157.4002) 6.1 1.2 68.7 17.1 24.4 151.9 1018.1 25.0
5-27-2021 11:02 21o 26.68' ( 21.4446) 157o 24.01' (-157.4001) 5.9 358.6 74.6 16.2 24.7 152.2 1019.0 24.9
5-27-2021 10:02 21o 29.11' ( 21.4852) 157o 22.25' (-157.3708) 11.8 301.0 82.6 16.9 24.5 152.0 1019.6 24.9
5-27-2021 9:02 21o 27.47' ( 21.4578) 157o 19.37' (-157.3228) 0.2 106.5 83.2 15.4 24.3 152.0 1019.8 24.9
5-27-2021 8:02 21o 27.47' ( 21.4578) 157o 19.37' (-157.3228) 0.2 108.4 78.2 15.8 24.4 151.9 1019.7 24.9
5-27-2021 7:02 21o 27.61' ( 21.4602) 157o 19.54' (-157.3256) 0.3 105.3 79.2 15.8 24.4 151.6 1019.2 24.9
5-27-2021 6:02 21o 27.67' ( 21.4612) 157o 19.75' (-157.3292) 0.3 109.8 83.9 16.2 24.4 151.0 1018.7 24.9
5-27-2021 5:02 21o 27.56' ( 21.4594) 157o 19.92' (-157.3320) 0.2 110.4 82.5 15.0 24.4 151.6 1018.3 25.0
5-27-2021 4:02 21o 27.43' ( 21.4572) 157o 20.12' (-157.3353) 0.3 111.5 69.6 15.3 25.1 151.0 1018.0 25.1
5-27-2021 3:02 21o 27.42' ( 21.4570) 157o 20.24' (-157.3373) 0.3 113.2 68.9 13.3 25.2 151.0 1017.9 25.1
5-27-2021 2:02 21o 27.56' ( 21.4593) 157o 20.39' (-157.3398) 0.3 110.7 57.8 13.9 25.4 151.8 1018.1 25.1
5-27-2021 1:02 21o 27.68' ( 21.4613) 157o 20.51' (-157.3419) 0.3 111.6 60.8 12.6 25.4 151.6 1018.5 25.2
5-27-2021 0:02 21o 27.81' ( 21.4634) 157o 20.65' (-157.3442) 0.3 113.1 67.1 12.5 25.1 151.5 1019.0 25.1
5-26-2021 23:02 21o 27.97' ( 21.4661) 157o 20.72' (-157.3453) 0.2 107.7 92.5 14.0 24.6 152.1 1019.4 25.2
5-26-2021 22:02 21o 28.06' ( 21.4677) 157o 20.71' (-157.3451) 0.3 94.2 84.2 12.9 24.7 152.0 1019.8 25.1
5-26-2021 21:02 21o 28.13' ( 21.4689) 157o 20.71' (-157.3452) 0.3 91.9 83.6 13.7 24.7 152.1 1020.1 25.0
5-26-2021 20:02 21o 28.13' ( 21.4689) 157o 20.72' (-157.3453) 0.3 91.8 80.4 12.6 24.8 151.9 1020.1 25.0
5-26-2021 19:02 21o 27.46' ( 21.4577) 157o 22.00' (-157.3667) 5.9 0.2 73.7 12.5 25.1 151.0 1019.6 24.9
5-26-2021 18:02 21o 29.13' ( 21.4855) 157o 20.96' (-157.3494) 5.9 190.1 95.2 15.1 24.8 151.1 1019.6 24.9
5-26-2021 17:02 21o 26.50' ( 21.4417) 157o 18.99' (-157.3166) 6.2 180.2 65.5 16.5 24.9 152.0 1018.8 25.0
5-26-2021 16:02 21o 26.88' ( 21.4480) 157o 18.50' (-157.3084) 6.0 2.1 59.4 12.8 24.5 151.8 1018.5 24.9
5-26-2021 15:02 21o 29.41' ( 21.4901) 157o 20.27' (-157.3378) 7.0 90.7 69.6 10.7 24.2 151.3 1018.3 24.9
5-26-2021 14:02 21o 27.10' ( 21.4517) 157o 21.49' (-157.3582) 6.2 182.7 79.2 10.7 24.5 150.7 1018.2 24.9
5-26-2021 13:02 21o 26.23' ( 21.4372) 157o 22.50' (-157.3750) 6.7 356.8 67.3 11.2 24.4 151.2 1018.1 25.0
5-26-2021 12:02 21o 29.50' ( 21.4916) 157o 24.34' (-157.4056) 6.1 75.9 79.0 8.7 24.3 150.6 1018.6 24.9
5-26-2021 11:02 21o 26.85' ( 21.4475) 157o 25.50' (-157.4251) 6.1 182.0 71.9 11.6 24.6 150.0 1019.2 24.8
5-26-2021 10:02 21o 27.88' ( 21.4646) 157o 26.50' (-157.4416) 6.0 357.0 75.5 11.2 24.5 152.0 1019.6 24.8
5-26-2021 9:02 21o 28.65' ( 21.4774) 157o 29.10' (-157.4851) 0.0 111.9 99.4 10.2 24.3 152.1 1020.0 25.0
5-26-2021 8:02 21o 28.65' ( 21.4774) 157o 29.11' (-157.4851) 0.3 104.8 102.6 10.0 24.5 151.4 1020.1 25.0
5-26-2021 7:02 21o 28.68' ( 21.4780) 157o 29.10' (-157.4851) 0.4 101.5 90.9 12.6 24.4 150.5 1019.7 25.0
5-26-2021 6:02 21o 28.79' ( 21.4798) 157o 29.10' (-157.4849) 0.3 95.0 86.2 11.1 24.6 150.5 1019.0 25.2
5-26-2021 5:02 21o 28.76' ( 21.4793) 157o 29.16' (-157.4861) 0.3 94.7 79.9 9.5 24.8 150.5 1018.7 25.0
5-26-2021 4:02 21o 28.74' ( 21.4790) 157o 29.19' (-157.4865) 0.4 95.6 92.2 9.9 24.9 150.0 1018.3 25.0
5-26-2021 3:02 21o 28.82' ( 21.4804) 157o 29.26' (-157.4876) 0.4 94.8 85.5 10.5 25.1 150.0 1018.0 25.1
5-26-2021 2:02 21o 28.83' ( 21.4806) 157o 29.35' (-157.4892) 0.3 95.3 88.2 10.8 25.3 150.7 1018.0 25.2
5-26-2021 1:02 21o 28.88' ( 21.4814) 157o 29.44' (-157.4906) 0.4 87.9 86.1 9.8 25.2 150.6 1018.3 25.1
5-26-2021 0:02 21o 28.87' ( 21.4811) 157o 29.45' (-157.4909) 0.3 93.7 87.8 10.4 25.0 150.4 1018.8 25.1
5-25-2021 23:02 21o 28.98' ( 21.4829) 157o 29.45' (-157.4908) 0.3 93.1 77.0 9.8 25.0 150.6 1019.0 24.7
5-25-2021 22:02 21o 29.02' ( 21.4837) 157o 29.44' (-157.4907) 0.3 105.2 85.3 9.6 25.2 150.6 1019.4 25.0
5-25-2021 21:02 21o 29.06' ( 21.4844) 157o 29.48' (-157.4914) 0.3 88.8 93.4 9.8 25.1 150.9 1019.7 25.1
5-25-2021 20:02 21o 29.06' ( 21.4843) 157o 29.48' (-157.4914) 0.5 90.8 93.6 10.4 25.2 150.6 1019.8 24.8
5-25-2021 19:02 21o 26.91' ( 21.4485) 157o 27.50' (-157.4583) 6.3 178.1 88.1 12.3 25.1 150.9 1019.6 24.8
5-25-2021 18:02 21o 27.36' ( 21.4559) 157o 28.51' (-157.4752) 5.9 5.1 88.6 12.8 25.2 151.0 1019.1 24.7
5-25-2021 17:02 21o 29.20' ( 21.4866) 157o 30.51' (-157.5084) 5.8 3.6 96.4 12.5 25.1 150.7 1018.4 24.9
5-25-2021 16:02 21o 28.89' ( 21.4815) 157o 31.49' (-157.5249) 6.7 177.5 85.3 10.2 24.5 150.6 1017.8 24.9
5-25-2021 15:02 21o 25.79' ( 21.4298) 157o 33.24' (-157.5540) 6.0 89.2 73.6 9.1 24.4 150.7 1017.5 25.0
5-25-2021 14:02 21o 27.39' ( 21.4564) 157o 34.51' (-157.5751) 5.0 3.8 85.9 8.6 24.6 150.0 1017.6 25.0
5-25-2021 13:02 21o 28.82' ( 21.4804) 157o 35.50' (-157.5917) 6.0 177.6 91.0 9.2 24.4 152.0 1017.5 24.9
5-25-2021 12:02 21o 25.62' ( 21.4271) 157o 35.07' (-157.5845) 11.3 257.1 90.1 10.0 24.7 152.0 1017.7 25.0
5-25-2021 11:02 21o 27.95' ( 21.4658) 157o 30.02' (-157.5003) 0.6 0.3 100.9 12.2 24.8 152.0 1018.3 25.0
5-25-2021 10:02 21o 27.94' ( 21.4657) 157o 30.02' (-157.5003) 0.4 10.7 88.9 10.7 24.8 151.8 1018.7 25.2
5-25-2021 9:02 21o 27.81' ( 21.4635) 157o 30.17' (-157.5028) 0.5 16.4 83.8 14.0 25.0 151.6 1019.0 25.2
5-25-2021 8:02 21o 27.82' ( 21.4637) 157o 30.32' (-157.5053) 0.4 22.3 31.3 7.3 24.8 152.0 1019.0 25.2
5-25-2021 7:02 21o 27.88' ( 21.4647) 157o 30.43' (-157.5071) 0.5 22.4 24.0 7.5 25.1 151.0 1018.6 24.9
5-25-2021 6:02 21o 27.77' ( 21.4629) 157o 30.50' (-157.5083) 0.0 73.5 26.5 6.7 25.5 151.0 1018.1 24.9
5-25-2021 5:02 21o 27.56' ( 21.4594) 157o 30.61' (-157.5101) 0.0 72.7 338.1 6.4 25.9 151.6 1017.3 24.8
5-25-2021 4:02 21o 27.38' ( 21.4564) 157o 30.69' (-157.5116) 0.5 73.4 354.5 4.2 26.6 151.7 1016.8 24.8
5-25-2021 3:02 21o 27.24' ( 21.4540) 157o 30.77' (-157.5128) 0.5 72.0 326.6 3.3 28.4 151.6 1016.1 24.8
5-25-2021 2:02 21o 27.10' ( 21.4517) 157o 30.86' (-157.5143) 0.4 72.3 9.9 2.0 27.8 151.0 1015.8 24.9
5-25-2021 1:02 21o 27.03' ( 21.4504) 157o 31.00' (-157.5166) 0.3 85.4 356.3 2.5 28.3 151.8 1016.2 24.9
5-25-2021 0:02 21o 27.03' ( 21.4504) 157o 30.99' (-157.5166) 0.4 84.7 60.0 1.2 28.0 151.9 1016.2 25.3
5-24-2021 23:02 21o 27.02' ( 21.4504) 157o 30.99' (-157.5166) 0.4 95.7 99.5 1.7 26.8 151.7 1016.5 24.8
5-24-2021 22:02 21o 22.65' ( 21.3774) 157o 33.39' (-157.5565) 11.4 27.2 179.8 4.9 25.9 151.7 1017.0 24.9
5-24-2021 21:02 21o 13.07' ( 21.2178) 157o 39.11' (-157.6519) 11.2 37.3 239.6 5.9 25.9 151.0 1017.4 24.9
5-24-2021 20:02 21o 12.59' ( 21.2098) 157o 50.82' (-157.8469) 12.0 125.5 131.9 0.7 25.5 151.7 1017.5 25.4
5-24-2021 19:02 21o 18.91' ( 21.3151) 157o 52.69' (-157.8782) 1.1 55.5 181.7 3.6 27.5 153.5 1017.2 25.8
5-24-2021 18:02 21o 18.92' ( 21.3153) 157o 52.67' (-157.8779) 0.3 31.5 110.3 0.8 27.2 153.4 1016.7 25.7
5-24-2021 17:02 21o 18.91' ( 21.3151) 157o 52.65' (-157.8774) 0.0 207.8 68.3 3.4 25.2 153.8 1016.3 25.7
5-24-2021 16:02 21o 18.91' ( 21.3151) 157o 52.65' (-157.8774) 0.0 207.7 72.8 0.8 23.3 154.1 1015.6 25.7
5-24-2021 15:02 21o 18.91' ( 21.3151) 157o 52.65' (-157.8774) 0.0 207.6 44.8 2.6 23.5 154.1 1014.9 25.8
5-24-2021 14:02 21o 18.91' ( 21.3151) 157o 52.65' (-157.8774) 0.0 207.4 36.5 2.8 23.8 154.0 1014.9 25.8
5-24-2021 13:02 21o 18.91' ( 21.3151) 157o 52.65' (-157.8774) 0.0 207.5 28.6 0.5 24.1 154.0 1015.1 25.8
5-24-2021 12:02 21o 18.90' ( 21.3151) 157o 52.65' (-157.8776) 0.0 207.8 350.1 2.0 24.7 154.0 1015.5 25.8
5-24-2021 11:02 21o 18.91' ( 21.3151) 157o 52.65' (-157.8774) 0.0 207.6 30.9 2.7 24.9 154.1 1016.3 25.8
5-24-2021 10:02 21o 18.91' ( 21.3151) 157o 52.65' (-157.8774) 0.0 207.4 12.9 0.3 25.0 154.0 1017.0 25.8
5-24-2021 9:02 21o 18.91' ( 21.3151) 157o 52.65' (-157.8774) 0.0 208.2 78.2 1.4 25.4 153.9 1017.1 25.8
5-24-2021 8:02 21o 18.91' ( 21.3151) 157o 52.65' (-157.8774) 0.0 207.7 69.0 4.6 25.6 154.1 1017.2 25.8
5-24-2021 7:02 21o 18.91' ( 21.3151) 157o 52.65' (-157.8774) 0.0 207.8 60.5 5.4 25.6 154.2 1016.7 25.8
5-24-2021 6:02 21o 18.91' ( 21.3151) 157o 52.65' (-157.8774) 0.0 208.0 124.0 3.9 25.5 154.5 1016.2 25.8
5-24-2021 5:02 21o 18.91' ( 21.3151) 157o 52.65' (-157.8774) 0.0 207.8 78.4 7.8 26.3 155.0 1015.3 25.8
5-24-2021 4:02 21o 18.91' ( 21.3151) 157o 52.65' (-157.8774) 0.0 207.6 68.3 9.2 27.6 154.8 1014.3 25.8
5-24-2021 3:02 21o 18.91' ( 21.3151) 157o 52.65' (-157.8774) 0.0 207.4 46.7 9.6 27.5 154.0 1014.0 25.7
5-24-2021 2:02 21o 18.91' ( 21.3151) 157o 52.65' (-157.8774) 0.0 207.3 54.8 10.4 28.3 155.2 1013.9 25.7
5-24-2021 1:02 21o 18.91' ( 21.3151) 157o 52.65' (-157.8774) 0.0 207.4 49.7 8.2 28.3 155.3 1014.4 25.7
5-24-2021 0:02 21o 18.91' ( 21.3151) 157o 52.65' (-157.8774) 0.0 207.4 187.9 1.9 27.9 155.5 1014.8 25.7
5-23-2021 23:02 21o 18.91' ( 21.3151) 157o 52.65' (-157.8774) 0.0 207.4 155.0 7.8 27.4 154.7 1015.4 25.7
5-23-2021 22:02 21o 18.91' ( 21.3151) 157o 52.65' (-157.8774) 0.0 207.9 218.7 3.9 27.1 154.2 1015.9 25.7
5-23-2021 21:02 21o 18.91' ( 21.3151) 157o 52.65' (-157.8774) 0.0 207.6 189.9 8.1 26.7 154.0 1016.4 25.7
5-23-2021 20:02 21o 18.91' ( 21.3151) 157o 52.65' (-157.8774) 0.0 207.7 180.8 2.9 27.2 153.0 1016.8 25.6
5-23-2021 19:02 21o 18.91' ( 21.3151) 157o 52.65' (-157.8774) 0.0 208.2 177.0 5.6 27.0 153.6 1016.6 25.6
5-23-2021 18:02 21o 18.91' ( 21.3151) 157o 52.65' (-157.8774) 0.0 207.3 233.5 1.8 26.4 153.9 1016.7 25.6
5-23-2021 17:02 21o 18.91' ( 21.3151) 157o 52.65' (-157.8774) 0.0 207.9 70.2 2.4 24.5 154.4 1016.2 25.6
5-23-2021 16:02 21o 18.91' ( 21.3151) 157o 52.65' (-157.8774) 0.0 207.4 18.2 2.0 22.9 154.6 1015.7 25.6
5-23-2021 15:02 21o 18.91' ( 21.3151) 157o 52.65' (-157.8774) 0.0 207.2 51.2 4.8 23.3 154.6 1015.5 25.6
5-23-2021 14:02 21o 18.91' ( 21.3151) 157o 52.65' (-157.8774) 0.0 207.6 53.4 2.0 23.5 154.5 1015.6 25.6
5-23-2021 13:02 21o 18.91' ( 21.3151) 157o 52.65' (-157.8774) 0.0 207.4 343.4 2.8 23.9 154.0 1015.8 25.6
5-23-2021 12:02 21o 18.91' ( 21.3151) 157o 52.65' (-157.8774) 0.0 207.5 334.5 0.8 24.0 154.6 1016.5 25.7
5-23-2021 11:02 21o 18.91' ( 21.3151) 157o 52.65' (-157.8774) 0.0 207.3 3.1 2.8 24.3 154.0 1017.0 25.7
5-23-2021 10:02 21o 18.91' ( 21.3151) 157o 52.65' (-157.8774) 0.0 207.4 329.6 2.6 24.8 154.0 1017.7 25.7
5-23-2021 9:02 21o 18.91' ( 21.3151) 157o 52.65' (-157.8774) 0.0 207.4 43.6 2.8 25.1 155.0 1018.1 25.7
5-23-2021 8:02 21o 18.91' ( 21.3151) 157o 52.65' (-157.8774) 0.0 207.6 67.3 1.0 24.9 155.0 1018.0 25.7
5-23-2021 7:02 21o 18.91' ( 21.3151) 157o 52.65' (-157.8775) 0.0 207.9 50.8 8.8 24.8 155.1 1017.9 25.7
5-23-2021 6:02 21o 18.91' ( 21.3151) 157o 52.65' (-157.8774) 0.0 207.2 79.0 4.2 25.0 154.7 1017.3 25.7
5-23-2021 5:02 21o 18.91' ( 21.3151) 157o 52.65' (-157.8774) 0.0 207.7 99.5 10.2 25.3 153.4 1016.8 25.7
5-23-2021 4:02 21o 18.91' ( 21.3151) 157o 52.65' (-157.8774) 0.0 208.0 70.8 9.7 26.4 151.8 1016.2 25.7
5-23-2021 3:02 21o 18.91' ( 21.3151) 157o 52.65' (-157.8774) 0.0 207.6 57.1 15.6 27.2 151.0 1015.8 25.7
5-23-2021 2:02 21o 18.91' ( 21.3151) 157o 52.65' (-157.8774) 0.0 207.6 56.9 16.5 27.1 152.3 1015.6 25.7
5-23-2021 1:02 21o 18.90' ( 21.3151) 157o 52.65' (-157.8775) 0.0 207.2 52.1 15.2 27.8 152.5 1015.8 25.6
5-23-2021 0:02 21o 18.90' ( 21.3151) 157o 52.65' (-157.8775) 0.0 207.6 54.7 14.2 27.9 152.7 1016.1 25.6
5-22-2021 23:02 21o 18.91' ( 21.3151) 157o 52.65' (-157.8775) 0.0 207.4 69.2 13.1 28.1 151.9 1016.6 25.5
5-22-2021 22:02 21o 18.91' ( 21.3151) 157o 52.65' (-157.8775) 0.0 207.6 58.8 14.5 27.9 153.6 1017.3 25.5
5-22-2021 21:02 21o 18.91' ( 21.3151) 157o 52.65' (-157.8775) 0.0 207.9 48.6 11.6 27.2 154.3 1017.8 25.5
5-22-2021 20:02 21o 18.91' ( 21.3151) 157o 52.66' (-157.8776) 0.0 208.2 52.8 10.8 26.4 153.9 1018.2 25.5
5-22-2021 19:02 21o 18.91' ( 21.3151) 157o 52.65' (-157.8775) 0.0 208.4 59.0 11.9 26.0 154.2 1018.1 25.5
5-22-2021 18:02 21o 18.91' ( 21.3151) 157o 52.65' (-157.8774) 0.0 208.3 54.4 9.8 24.5 154.9 1018.1 25.5
5-22-2021 17:02 21o 18.91' ( 21.3151) 157o 52.65' (-157.8774) 0.0 208.3 119.7 1.1 23.7 155.0 1017.5 25.5
5-22-2021 16:02 21o 18.91' ( 21.3151) 157o 52.65' (-157.8775) 0.0 208.7 77.7 4.0 23.9 155.4 1016.9 25.5
5-22-2021 15:02 21o 18.91' ( 21.3151) 157o 52.65' (-157.8775) 0.0 208.5 67.7 5.0 23.7 154.1 1016.6 25.5
5-22-2021 14:02 21o 18.91' ( 21.3151) 157o 52.65' (-157.8774) 0.0 207.9 72.8 3.7 23.8 154.5 1016.3 25.5
5-22-2021 13:02 21o 18.90' ( 21.3150) 157o 52.65' (-157.8775) 0.0 208.5 126.7 5.6 23.9 153.5 1016.4 25.6
5-22-2021 12:02 21o 18.91' ( 21.3151) 157o 52.65' (-157.8774) 0.0 207.9 41.3 3.3 24.0 153.8 1016.8 25.6
5-22-2021 11:02 21o 18.91' ( 21.3151) 157o 52.65' (-157.8774) 0.0 208.3 103.4 6.6 24.1 153.6 1017.3 25.6
5-22-2021 10:02 21o 18.91' ( 21.3151) 157o 52.65' (-157.8775) 0.0 208.1 89.0 10.6 24.2 154.9 1017.8 25.6
5-22-2021 9:02 21o 18.91' ( 21.3151) 157o 52.65' (-157.8774) 0.0 208.2 82.9 5.4 24.1 154.8 1018.2 25.6
5-22-2021 8:02 21o 18.91' ( 21.3151) 157o 52.65' (-157.8775) 0.0 208.2 54.6 13.2 23.9 155.2 1018.3 25.6
5-22-2021 7:02 21o 18.91' ( 21.3151) 157o 52.65' (-157.8775) 0.0 208.4 93.3 7.5 24.5 152.4 1017.9 25.7
5-22-2021 6:02 21o 18.91' ( 21.3151) 157o 52.65' (-157.8775) 0.0 208.3 74.2 12.8 24.3 152.4 1017.5 25.7
5-22-2021 5:02 21o 18.91' ( 21.3151) 157o 52.65' (-157.8775) 0.0 208.2 93.9 13.7 25.0 151.4 1016.8 25.7
5-22-2021 4:02 21o 18.91' ( 21.3151) 157o 52.65' (-157.8774) 0.0 208.4 43.7 13.1 26.3 151.2 1016.2 25.7
5-22-2021 3:02 21o 18.91' ( 21.3151) 157o 52.65' (-157.8775) 0.0 208.2 70.3 12.8 26.6 152.0 1015.4 25.6
5-22-2021 2:02 21o 18.91' ( 21.3151) 157o 52.65' (-157.8775) 0.0 208.3 53.3 17.5 26.8 153.0 1015.7 25.6
5-22-2021 1:02 21o 18.91' ( 21.3151) 157o 52.65' (-157.8775) 0.0 208.0 69.4 9.2 27.4 154.2 1015.7 25.6
5-22-2021 0:02 21o 18.91' ( 21.3151) 157o 52.65' (-157.8774) 0.0 208.6 37.5 12.0 27.2 153.0 1016.0 25.6
5-21-2021 23:02 21o 18.91' ( 21.3151) 157o 52.65' (-157.8774) 0.0 208.3 71.5 14.7 27.1 152.5 1016.5 25.6
5-21-2021 22:02 21o 18.91' ( 21.3151) 157o 52.65' (-157.8774) 0.0 207.7 48.7 13.7 27.1 152.6 1017.0 25.5
5-21-2021 21:02 21o 18.91' ( 21.3151) 157o 52.65' (-157.8774) 0.0 207.6 46.4 11.0 26.8 152.8 1017.4 25.5
5-21-2021 20:02 21o 18.90' ( 21.3151) 157o 52.65' (-157.8776) 0.0 207.9 68.4 11.0 25.7 153.0 1017.6 25.5
5-21-2021 19:02 21o 18.91' ( 21.3151) 157o 52.65' (-157.8775) 0.0 208.3 61.7 13.5 25.2 152.4 1017.6 25.4
5-21-2021 18:02 21o 18.91' ( 21.3151) 157o 52.65' (-157.8774) 0.0 207.8 126.9 2.0 25.0 152.1 1017.5 25.4
5-21-2021 17:02 21o 18.91' ( 21.3151) 157o 52.65' (-157.8775) 0.0 208.9 67.9 8.2 24.0 152.0 1016.9 25.4
5-21-2021 16:02 21o 18.91' ( 21.3151) 157o 52.65' (-157.8775) 0.0 208.1 79.7 7.2 23.6 152.1 1016.3 25.5
5-21-2021 15:02 21o 18.91' ( 21.3151) 157o 52.65' (-157.8775) 0.0 208.3 79.1 8.4 23.5 152.1 1015.7 25.5
5-21-2021 14:02 21o 18.91' ( 21.3151) 157o 52.65' (-157.8775) 0.0 208.2 72.9 8.8 23.6 152.1 1015.5 25.5
5-21-2021 13:02 21o 18.91' ( 21.3151) 157o 52.65' (-157.8774) 0.0 208.1 56.9 7.3 23.9 152.4 1015.8 25.5
5-21-2021 12:02 21o 18.91' ( 21.3151) 157o 52.65' (-157.8774) 0.0 208.0 85.2 2.9 23.9 152.2 1016.3 25.5
5-21-2021 11:02 21o 18.91' ( 21.3151) 157o 52.65' (-157.8774) 0.0 207.7 73.9 5.5 24.3 152.2 1016.8 25.5
5-21-2021 10:02 21o 18.91' ( 21.3151) 157o 52.65' (-157.8774) 0.0 207.8 96.4 5.5 24.4 152.2 1017.5 25.5
5-21-2021 9:02 21o 18.91' ( 21.3151) 157o 52.65' (-157.8774) 0.0 207.9 117.6 3.1 24.7 152.1 1017.8 25.5
5-21-2021 8:02 21o 18.91' ( 21.3151) 157o 52.65' (-157.8774) 0.0 208.1 56.8 7.7 24.9 152.5 1017.5 25.6
5-21-2021 7:02 21o 18.91' ( 21.3151) 157o 52.65' (-157.8774) 0.0 207.7 88.9 5.9 25.0 152.5 1017.3 25.6
5-21-2021 6:02 21o 18.91' ( 21.3151) 157o 52.65' (-157.8775) 0.0 208.3 80.2 6.7 24.9 151.0 1016.6 25.6
5-21-2021 5:02 21o 18.91' ( 21.3151) 157o 52.65' (-157.8775) 0.0 207.9 64.2 17.0 24.9 151.9 1016.2 25.6
5-21-2021 4:02 21o 18.91' ( 21.3151) 157o 52.65' (-157.8775) 0.0 208.2 80.4 12.9 26.1 152.0 1015.4 25.6
5-21-2021 3:02 21o 18.91' ( 21.3151) 157o 52.65' (-157.8775) 0.0 208.2 74.4 11.8 26.3 152.0 1015.1 25.6
5-21-2021 2:02 21o 18.91' ( 21.3151) 157o 52.65' (-157.8775) 0.0 208.5 67.9 10.5 26.6 151.9 1015.4 25.5
5-21-2021 1:02 21o 18.91' ( 21.3151) 157o 52.65' (-157.8774) 0.0 207.7 50.7 11.7 27.5 151.4 1015.8 25.5
5-21-2021 0:02 21o 18.91' ( 21.3151) 157o 52.65' (-157.8775) 0.0 208.1 76.0 9.2 28.2 151.0 1016.3 25.5
5-20-2021 23:02 21o 18.91' ( 21.3151) 157o 52.65' (-157.8775) 0.0 208.0 66.2 14.3 27.4 151.7 1016.9 25.4
5-20-2021 22:02 21o 18.91' ( 21.3151) 157o 52.65' (-157.8775) 0.0 207.9 73.1 9.7 27.7 152.3 1017.2 25.4
5-20-2021 21:02 21o 18.91' ( 21.3151) 157o 52.65' (-157.8775) 0.0 208.1 50.8 14.4 27.4 152.5 1017.8 25.4
5-20-2021 20:02 21o 18.90' ( 21.3150) 157o 52.65' (-157.8775) 0.0 207.9 60.4 11.9 27.4 152.6 1017.8 25.4
5-20-2021 19:02 21o 18.91' ( 21.3151) 157o 52.65' (-157.8775) 0.0 208.1 70.6 10.0 26.8 152.6 1018.0 25.4
5-20-2021 18:02 21o 18.91' ( 21.3151) 157o 52.65' (-157.8775) 0.0 208.3 74.7 9.6 26.1 152.0 1018.0 25.4
5-20-2021 17:02 21o 18.91' ( 21.3151) 157o 52.65' (-157.8775) 0.0 208.0 70.3 3.3 24.5 152.7 1017.7 25.4
5-20-2021 16:02 21o 18.90' ( 21.3151) 157o 52.65' (-157.8775) 0.0 208.4 77.3 4.4 24.1 152.5 1017.2 25.4
5-20-2021 15:02 21o 18.91' ( 21.3151) 157o 52.65' (-157.8774) 0.0 208.0 105.0 2.4 23.9 152.3 1016.9 25.4
5-20-2021 14:02 21o 18.91' ( 21.3151) 157o 52.65' (-157.8774) 0.0 208.1 61.0 7.6 24.0 151.9 1016.6 25.4
5-20-2021 13:02 21o 18.91' ( 21.3151) 157o 52.65' (-157.8774) 0.0 208.3 60.7 7.7 24.0 151.9 1016.6 25.4
5-20-2021 12:02 21o 18.91' ( 21.3151) 157o 52.65' (-157.8774) 0.0 208.6 51.5 8.1 24.1 151.9 1016.7 25.4
5-20-2021 11:02 21o 18.91' ( 21.3151) 157o 52.65' (-157.8774) 0.0 208.4 68.9 7.9 24.5 151.8 1017.5 25.4
5-20-2021 10:02 21o 18.91' ( 21.3151) 157o 52.65' (-157.8774) 0.0 208.4 71.1 7.1 24.2 151.9 1018.0 25.5
5-20-2021 9:02 21o 18.91' ( 21.3151) 157o 52.65' (-157.8774) 0.0 208.3 61.3 8.9 24.2 151.0 1018.5 25.5
5-20-2021 8:02 21o 18.91' ( 21.3151) 157o 52.65' (-157.8774) 0.0 208.1 44.5 9.7 24.4 151.5 1018.4 25.5
5-20-2021 7:02 21o 18.91' ( 21.3151) 157o 52.65' (-157.8774) 0.0 208.5 37.6 7.9 24.3 151.6 1018.2 25.6
5-20-2021 6:02 21o 18.91' ( 21.3151) 157o 52.65' (-157.8774) 0.0 208.2 60.8 8.7 24.5 151.5 1017.9 25.6
5-20-2021 5:02 21o 18.91' ( 21.3151) 157o 52.65' (-157.8774) 0.0 208.4 81.2 9.2 24.9 151.3 1017.2 25.6
5-20-2021 4:02 21o 18.91' ( 21.3151) 157o 52.65' (-157.8774) 0.0 208.3 49.9 10.2 25.8 150.4 1016.7 25.7
5-20-2021 3:02 21o 18.91' ( 21.3151) 157o 52.65' (-157.8774) 0.0 208.5 58.7 17.1 26.3 150.6 1016.3 25.7
5-20-2021 2:02 21o 18.90' ( 21.3151) 157o 52.65' (-157.8776) 0.0 208.7 37.2 15.8 26.8 151.1 1016.2 25.7
5-20-2021 1:02 21o 18.91' ( 21.3151) 157o 52.65' (-157.8774) 0.0 207.9 60.0 13.8 26.9 151.3 1016.7 25.7
5-20-2021 0:02 21o 18.91' ( 21.3151) 157o 52.65' (-157.8774) 0.0 207.8 55.3 14.2 27.4 151.5 1016.9 25.6
5-19-2021 23:02 21o 18.91' ( 21.3151) 157o 52.65' (-157.8775) 0.0 208.4 41.3 14.0 27.5 152.9 1017.2 25.5
5-19-2021 22:02 21o 18.91' ( 21.3151) 157o 52.65' (-157.8774) 0.0 208.5 76.2 7.7 27.0 152.0 1017.6 25.5
5-19-2021 21:02 21o 18.91' ( 21.3151) 157o 52.65' (-157.8775) 0.0 208.2 56.2 12.9 26.8 152.9 1018.4 25.5
5-19-2021 20:02 21o 18.91' ( 21.3151) 157o 52.65' (-157.8775) 0.0 208.3 81.5 13.9 26.8 153.5 1018.5 25.5
5-19-2021 19:02 21o 18.91' ( 21.3151) 157o 52.65' (-157.8775) 0.0 208.1 84.9 12.9 26.0 154.0 1018.5 25.6
5-19-2021 18:02 21o 18.91' ( 21.3151) 157o 52.65' (-157.8774) 0.0 207.8 66.7 7.7 25.7 154.8 1018.3 25.7
5-19-2021 17:02 21o 18.46' ( 21.3077) 157o 52.24' (-157.8707) 5.7 309.5 60.0 8.1 24.2 153.4 1018.1 25.6
5-19-2021 16:02 21o 14.76' ( 21.2459) 157o 54.29' (-157.9048) 0.7 29.9 76.1 16.5 24.1 154.1 1017.2 25.1
5-19-2021 15:02 21o 14.79' ( 21.2465) 157o 55.87' (-157.9312) 9.4 89.5 63.0 13.0 23.8 154.6 1016.9 25.1
5-19-2021 14:02 21o 14.79' ( 21.2465) 158o 7.97' (-158.1328) 11.6 88.5 56.9 14.5 23.4 154.8 1016.8 25.3
5-19-2021 13:02 21o 22.11' ( 21.3686) 158o 16.86' (-158.2810) 11.0 163.2 88.7 18.2 24.2 155.8 1016.9 25.5
5-19-2021 12:02 21o 32.95' ( 21.5491) 158o 19.99' (-158.3332) 10.7 176.7 55.3 16.1 23.6 155.0 1017.5 25.4
5-19-2021 11:02 21o 43.73' ( 21.7289) 158o 17.52' (-158.2920) 11.0 194.2 80.8 20.6 24.1 155.2 1018.1 25.2
5-19-2021 10:02 21o 54.82' ( 21.9137) 158o 14.32' (-158.2386) 11.3 195.2 75.4 20.2 24.3 155.6 1019.0 24.9
5-19-2021 9:02 22o 5.68' ( 22.0946) 158o 11.27' (-158.1878) 11.1 192.1 77.3 20.6 23.9 155.8 1019.7 24.7
5-19-2021 8:02 22o 16.53' ( 22.2754) 158o 8.14' (-158.1356) 11.4 192.7 77.1 24.2 24.1 156.0 1019.8 24.7
5-19-2021 7:02 22o 27.10' ( 22.4516) 158o 3.62' (-158.0604) 11.5 209.2 82.4 21.4 23.9 155.9 1019.7 24.8
5-19-2021 6:02 22o 36.78' ( 22.6130) 157o 57.38' (-157.9563) 11.0 206.4 74.1 22.8 23.6 156.0 1019.3 24.8
5-19-2021 5:02 22o 47.49' ( 22.7915) 157o 55.27' (-157.9212) 11.0 180.9 76.1 19.7 24.3 154.2 1018.6 24.7
5-19-2021 4:02 22o 51.07' ( 22.8512) 157o 53.74' (-157.8956) 0.8 106.7 80.9 21.0 23.6 154.5 1018.2 24.8